                ,  0.290,  0.386,  0.483,  0.580,  0.676,  0.773,  0.869,  0.966,  1.063,  1.159,  1.256,  1.352,  1.449,  1.545,  1.642,  1.739,  1.835,  1.932,  2.028,  2.125,  2.222,  2.318,  2.415,  2.511,  2.608,  2.705,  2.801,  2.898,  2.994,  3.091,  3.188,  3.284,  3.381,  3.477,  3.574,  3.671,  3.767,  3.864,  3.960,  4.057,  4.153,  4.250,  4.347,  4.443,  4.540,  4.636,  4.733,  4.830,  4.926,  5.023,  5.119,  5.216,  5.313,  5.409,  5.506,  5.602,  5.699,  5.796
2000/10/26 00:00,  999.0,  999.0,   -0.9,    1.3,    4.2,  999.0,  999.0,  999.0,  999.0,  999.0,  999.0,  999.0,  999.0,   10.4,   11.3,  999.0,  999.0,  999.0,    2.5,  999.0,  999.0,  999.0,  999.0,  999.0,  999.0,  999.0,  999.0,  999.0,  999.0,  999.0,  999.0,  999.0,  999.0,  999.0,  999.0,  999.0,  999.0,  999.0,  999.0,  999.0,  999.0,  999.0,  999.0,  999.0,  999.0,  999.0,  999.0,  999.0,  999.0,  999.0,  999.0,  999.0,  999.0,  999.0,  999.0,  999.0,  999.0,  999.0
2000/10/26 00:10,  999.0,    1.9,    1.7,    3.0,    1.7,  999.0,  999.0,   -0.1,   -1.3,    0.6,    0.7,    1.4,  999.0,  999.0,    2.6,  999.0,  999.0,   11.2,    1.3,  999.0,  999.0,  999.0,  999.0,  999.0,  999.0,  999.0,  999.0,  999.0,  999.0,  999.0,   13.1,  999.0,  999.0,   10.3,  999.0,   10.1,  999.0,    9.5,  999.0,    7.8,  999.0,    6.6,  999.0,    5.6,    5.3,  999.0,    3.7,  999.0,    2.6,    1.9,  999.0,  999.0,    0.6,    0.5,    0.8,  999.0,    1.2,    1.0
2000/10/26 00:20,  999.0,    1.0,    0.6,  999.0,    3.2,    3.3,   -5.2,    1.1,    1.0,    1.1,    3.6,    2.7,    3.5,    7.7,    2.3,  999.0,   -3.1,   -1.7,  999.0,    5.5,    7.8,    3.8,   14.9,  999.0,   13.6,  999.0,   12.7,   12.4,   11.7,   11.1,   13.7,  999.0,    9.9,   10.6,  999.0,  999.0,    8.2,  999.0,  999.0,    5.6,  999.0,    5.1,  999.0,    4.4,    3.4,    3.3,    2.5,    2.1,    1.3,    0.9,    1.0,    0.7,  999.0,    0.5,    1.0,    0.6,  999.0,    0.9
2000/10/26 00:30,  999.0,  999.0,  999.0,    2.4,    1.8,    2.1,   -0.3,    0.5,   -1.9,    1.6,    0.2,    4.3,    1.9,    6.5,  999.0,  999.0,  999.0,    6.8,  999.0,  999.0,  999.0,   17.5,   17.2,  999.0,   15.7,   14.9,   15.0,  999.0,   12.2,   12.9,   12.4,   11.4,   10.3,   10.8,  999.0,    9.5,    7.1,    7.9,    5.5,  999.0,    4.1,    6.0,    5.1,    6.3,    3.7,    0.2,    1.3,    3.2,    2.5,  999.0,    0.5,    1.6,    2.5,    1.3,    1.7,    0.5,    0.8,  999.0
2000/10/26 00:40,  999.0,    1.0,    2.8,    2.9,  999.0,    0.4,    3.0,   -5.2,    1.6,    0.3,   -0.9,    0.8,   -0.4,   -1.2,  999.0,    0.4,   -1.4,    0.7,    0.7,    2.8,    2.4,  999.0,  999.0,  999.0,  999.0,  999.0,  999.0,   11.7,  999.0,   10.9,  999.0,    9.2,  999.0,    8.1,    7.5,    6.8,    6.3,    5.4,    4.5,    4.4,    3.3,    2.8,  999.0,  999.0,  999.0,  999.0,    1.2,    1.3,  999.0,    1.6,    1.3,  999.0,    0.6,  999.0,  999.0,    0.8,   -0.3,  999.0
2000/10/26 00:50,  999.0,    2.3,    4.8,  999.0,    1.0,    4.4,    3.1,  999.0,    0.4,  999.0,    4.9,    7.4,    3.0,  999.0,    2.4,    2.6,    3.9,  999.0,   10.7,  999.0,  999.0,  999.0,   14.9,   12.6,   11.0,   10.9,  999.0,    8.9,    8.2,    9.3,    5.9,    7.6,  999.0,    5.3,    1.9,    6.7,    4.1,    3.6,    2.2,    2.7,    1.8,    1.2,    1.4,    1.0,    1.0,    0.3,    0.5,    0.9,    0.4,    1.5,    1.1,    0.5,    0.9,    0.9,    0.5,  999.0,    0.5,    0.9
2000/10/26 01:00,  999.0,    1.9,   -0.8,  999.0,    3.5,    0.5,   -1.2,    1.1,    0.4,  999.0,    5.6,  999.0,  999.0,  999.0,  999.0,  999.0,    1.2,  999.0,  999.0,  999.0,  999.0,  999.0,   15.2,  999.0,  999.0,   11.8,  999.0,    9.7,  999.0,    6.1,    5.8,  999.0,    3.4,    2.3,  999.0,    1.3,    1.0,    0.9,    1.0,    0.8,    0.2,    0.7,    0.2,  999.0,    0.2,    0.8,  999.0,    0.1,    1.0,  999.0,    0.5,    0.2,    0.8,  999.0,    1.2,  999.0,    1.1,    0.4
2000/10/26 01:10,  999.0,    9.0,    4.7,    6.1,    1.5,    3.3,    0.9,  999.0,    1.4,  999.0,    8.3,  999.0,  999.0,    2.5,   -4.1,  999.0,    4.1,    3.0,    2.9,   -0.5,  999.0,   -0.2,   16.5,   15.7,  999.0,  999.0,  999.0,  999.0,  999.0,    8.2,    6.5,    6.5,  999.0,  999.0,    3.2,    1.7,    1.1,  999.0,    1.5,  999.0,    0.9,    0.8,    0.8,  999.0,    1.1,  999.0,    0.0,  999.0,  999.0,    0.4,    0.7,  999.0,    0.8,    0.7,  999.0,    1.3,    0.6,  999.0
2000/10/26 01:20,  999.0,    4.4,    4.2,    2.7,    5.5,    3.6,    0.5,    0.9,    1.6,  999.0,  999.0,    5.7,  999.0,  999.0,  999.0,    3.3,  999.0,   21.7,   10.7,    9.6,    4.5,  999.0,  999.0,   15.3,   14.0,  999.0,  999.0,  999.0,    8.9,    7.8,    6.8,    5.7,    4.2,  999.0,  999.0,    0.1,    1.3,    0.3,    0.8,    0.2,    0.5,    0.9,  999.0,    0.6,    0.9,    0.2,    0.6,    1.5,    0.3,    0.6,    0.6,    0.3,    0.4,    0.8,    0.1,    0.3,    0.8,    0.5
2000/10/26 01:30,  999.0,   -1.8,  999.0,    0.4,    4.5,  999.0,  999.0,    6.7,    2.9,    1.6,   -2.4,    3.3,    1.3,   -1.6,    1.7,    0.3,    0.2,    0.3,    2.6,   -0.1,  999.0,  999.0,  999.0,  999.0,  999.0,  999.0,   25.7,  999.0,  999.0,   27.3,   27.9,   27.9,   21.9,   29.0,   24.2,   27.2,   25.1,  999.0,   29.4,  999.0,   32.8,   28.9,  999.0,   30.8,   35.3,   36.2,  999.0,  999.0,  999.0,   37.8,   35.9,   38.9,   40.4,  999.0,  999.0,   39.4,   42.1,   40.8
2000/10/26 01:40,  999.0,  999.0,    0.0,    0.7,    1.6,    4.9,    4.4,   10.8,   -0.7,    1.9,    3.4,    1.9,    1.8,    1.3,    1.7,    1.0,    0.9,    1.6,    1.6,    6.4,    7.3,  999.0,  999.0,  999.0,    4.3,  999.0,  999.0,  999.0,  999.0,  999.0,  999.0,  999.0,  999.0,  999.0,   25.2,  999.0,   26.8,  999.0,   27.6,   27.3,  999.0,  999.0,  999.0,   30.3,   31.1,   31.7,  999.0,  999.0,   33.2,   34.3,   34.8,  999.0,  999.0,  999.0,  999.0,   37.6,  999.0,  999.0
2000/10/26 01:50,  999.0,    3.7,   -0.7,    1.0,    1.3,   -1.6,    5.0,    4.3,   -0.4,   -2.4,   -1.9,    0.8,    3.3,    2.6,    3.2,   -0.8,    1.1,    3.6,    1.3,    5.0,  999.0,  999.0,  999.0,  999.0,  999.0,  999.0,  999.0,  999.0,  999.0,  999.0,  999.0,  999.0,  999.0,  999.0,  999.0,  999.0,  999.0,  999.0,  999.0,  999.0,  999.0,  999.0,  999.0,  999.0,  999.0,  999.0,  999.0,  999.0,  999.0,  999.0,  999.0,  999.0,  999.0,  999.0,  999.0,  999.0,  999.0,  999.0
2000/10/26 02:00,  999.0,  999.0,  999.0,   -3.7,    7.7,   -0.5,   -0.4,    3.9,   -0.6,    0.2,    2.8,    4.1,    1.6,   10.1,    6.3,    1.4,    5.6,   -1.9,   -1.1,    3.5,    0.9,  999.0,  999.0,  999.0,  999.0,  999.0,  999.0,  999.0,  999.0,  999.0,  999.0,  999.0,  999.0,  999.0,  999.0,  999.0,  999.0,   28.4,  999.0,  999.0,   31.6,   31.7,   32.5,   33.1,  999.0,   35.1,   35.9,   36.3,   37.7,  999.0,   38.5,   39.2,   39.9,   40.7,  999.0,   42.1,  999.0,  999.0
2000/10/26 02:10,  999.0,  999.0,    1.4,    4.0,    3.2,    2.8,   -1.2,    2.2,    1.1,    3.9,    3.4,    4.8,    2.6,    1.8,  999.0,  999.0,    1.1,    5.1,    6.2,    6.6,    6.9,  999.0,  999.0,  999.0,    9.1,   16.9,  999.0,   24.2,   25.3,   25.8,   27.9,  999.0,   27.8,   28.5,   29.1,   29.2,   30.6,   31.3,   31.8,   32.5,   32.9,   33.5,   34.1,   34.8,  999.0,   36.2,   36.4,   38.0,   38.1,   38.1,   40.3,   39.5,   41.0,   40.4,   42.0,   41.5,   41.4,   42.3
2000/10/26 02:20,  999.0,  999.0,    2.1,  999.0,    0.7,   -0.9,    0.2,    0.2,   -1.8,    0.8,    1.4,    4.0,   -0.1,    4.1,    5.7,    8.9,  999.0,    0.1,    1.5,   -0.2,    5.4,  999.0,   -1.2,    9.6,  999.0,  999.0,  999.0,  999.0,  999.0,   30.1,   30.1,   31.0,  999.0,   30.9,   31.6,   32.1,   32.9,   33.5,   33.5,  999.0,   34.4,  999.0,   34.7,  999.0,  999.0,   36.9,  999.0,   38.0,  999.0,   39.3,  999.0,   40.5,   39.0,  999.0,   41.3,   40.9,   41.6,  999.0
2000/10/26 02:30,  999.0,    0.6,   -2.4,   -0.3,    0.8,    0.5,    0.4,    1.4,    1.5,    1.2,    3.0,  999.0,    2.8,   11.6,    6.5,   11.3,    5.2,    8.7,   11.6,  999.0,    6.3,   19.5,   -0.2,  999.0,   26.5,  999.0,   27.6,   27.2,   29.1,   31.0,  999.0,   30.6,   29.8,   31.2,   31.3,   33.5,   32.4,   32.8,   33.8,   34.0,   34.4,  999.0,  999.0,  999.0,   36.4,  999.0,   37.3,   38.7,   39.8,   39.7,   38.8,  999.0,   40.6,  999.0,  999.0,  999.0,  999.0,   42.2
2000/10/26 02:40,  999.0,  999.0,   -0.1,   -0.7,   -1.4,   -3.1,   -9.8,  999.0,   -1.5,   -2.0,    0.6,    1.7,    1.5,   -2.8,    8.7,    6.2,   -3.3,    3.7,    4.1,    4.4,   17.1,    9.5,   10.8,  999.0,  999.0,   30.9,   33.8,   30.5,  999.0,   32.0,  999.0,   32.8,   34.0,   34.1,   35.2,   35.7,   35.7,   38.1,   37.2,   37.5,   37.4,   37.8,   38.3,  999.0,   39.9,   40.9,   39.7,   41.4,   41.3,   42.5,   42.0,   41.7,   42.0,   41.9,   42.2,  999.0,  999.0,   41.9
2000/10/26 02:50,  999.0,    0.2,    0.6,    1.6,    2.9,    4.0,    1.0,    5.1,   -0.9,   -0.6,    1.1,    0.9,  999.0,    1.8,    0.7,    0.1,  999.0,  999.0,  999.0,    9.3,   10.5,  999.0,  999.0,  999.0,  999.0,   28.6,  999.0,  999.0,  999.0,   32.4,   32.8,   34.2,  999.0,   35.3,  999.0,  999.0,  999.0,   38.1,   39.2,   39.7,  999.0,   41.1,  999.0,  999.0,   42.2,   41.6,   41.4,   41.1,  999.0,   41.9,  999.0,   41.9,  999.0,   42.0,   41.9,   41.8,  999.0,   41.8
2000/10/26 03:00,  999.0,  999.0,    0.9,    2.5,    2.7,    7.4,   -0.2,    1.4,    2.5,    3.3,    5.0,    3.6,    7.5,  999.0,  999.0,    6.8,  999.0,    7.5,  999.0,  999.0,  999.0,   24.2,   25.6,  999.0,   25.9,   26.0,  999.0,   27.4,   27.3,  999.0,   28.3,   31.5,   31.8,   30.3,   33.4,   31.6,  999.0,   34.3,  999.0,   35.5,  999.0,  999.0,   39.4,  999.0,   39.9,   38.6,   38.7,   42.0,  999.0,   42.0,  999.0,   41.9,   41.7,   41.9,   41.3,   41.3,   41.6,   40.8
2000/10/26 03:10,  999.0,  999.0,    3.9,    2.0,    1.9,    3.1,   -1.8,    1.0,    3.2,    4.4,    6.5,  999.0,    6.7,    7.7,  999.0,  999.0,    1.9,    9.3,    8.9,   14.2,  999.0,    8.9,  999.0,   25.5,  999.0,   28.0,   29.0,  999.0,   30.0,  999.0,  999.0,  999.0,  999.0,   35.0,  999.0,  999.0,  999.0,  999.0,  999.0,   40.0,   40.8,  999.0,   42.0,  999.0,  999.0,  999.0,   41.4,  999.0,  999.0,  999.0,   42.5,  999.0,  999.0,  999.0,   42.0,  999.0,   41.8,  999.0
2000/10/26 03:20,  999.0,  999.0,  999.0,    1.2,    3.7,    1.3,    0.7,    4.2,    2.5,    4.5,    5.0,  999.0,    4.7,    1.0,    3.4,    4.4,    3.8,  999.0,   11.7,  999.0,   16.6,  999.0,   11.7,  999.0,  999.0,  999.0,  999.0,  999.0,   31.1,  999.0,  999.0,  999.0,  999.0,  999.0,  999.0,  999.0,  999.0,  999.0,  999.0,  999.0,  999.0,  999.0,  999.0,  999.0,  999.0,  999.0,  999.0,  999.0,  999.0,  999.0,  999.0,  999.0,  999.0,  999.0,  999.0,  999.0,  999.0,  999.0
2000/10/26 03:30,  999.0,  999.0,   -0.3,    3.5,    1.3,    2.5,   -2.1,    1.9,    4.0,    4.2,    5.0,    6.1,    3.9,    0.0,    0.6,  999.0,  999.0,  999.0,    4.2,    9.0,    5.3,  999.0,  999.0,  999.0,  999.0,  999.0,  999.0,  999.0,  999.0,  999.0,  999.0,  999.0,  999.0,  999.0,  999.0,  999.0,  999.0,  999.0,  999.0,  999.0,  999.0,  999.0,  999.0,  999.0,  999.0,  999.0,  999.0,  999.0,  999.0,  999.0,  999.0,  999.0,  999.0,  999.0,  999.0,  999.0,  999.0,  999.0
2000/10/26 03:40,  999.0,  999.0,  999.0,    3.0,    4.6,    1.9,    2.2,    1.2,    2.6,    3.6,    0.6,    3.9,    3.2,   -3.7,  999.0,  999.0,  999.0,  999.0,  999.0,   -2.1,  999.0,    1.4,    1.1,  999.0,  999.0,  999.0,  999.0,  999.0,  999.0,  999.0,  999.0,  999.0,  999.0,  999.0,  999.0,  999.0,  999.0,  999.0,  999.0,  999.0,  999.0,  999.0,  999.0,   -0.7,   -1.5,  999.0,   -1.5,   -1.5,   -0.9,   -2.1,   -0.9,   -0.6,   -0.1,   -0.5,  999.0,  999.0,   -0.3,   -1.0
2000/10/26 03:50,  999.0,  999.0,  999.0,   -2.2,    0.9,    1.2,    1.2,    0.6,    1.8,    4.4,    3.7,    5.9,    0.4,   -0.6,  999.0,    4.3,    4.7,    2.7,    2.1,   12.6,   -2.0,   -0.4,   -0.2,  999.0,  999.0,  999.0,  999.0,  999.0,  999.0,  999.0,  999.0,  999.0,  999.0,  999.0,  999.0,  999.0,  999.0,  999.0,   -1.1,  999.0,   -0.6,   -0.8,  999.0,   -1.2,   -0.6,   -0.4,   -0.2,   -0.7,  999.0,   -0.5,   -0.7,   -0.8,   -1.0,   -0.8,   -1.1,   -1.2,   -0.7,   -0.7
2000/10/26 04:00,  999.0,   -1.4,    5.2,    5.7,    5.7,    3.1,    0.5,    3.1,    3.2,    3.5,   -0.8,   -0.2,    4.3,    2.5,  999.0,  999.0,   -0.6,    4.8,    2.0,    2.6,  -12.1,  999.0,  999.0,  999.0,  999.0,  999.0,  999.0,  999.0,  999.0,  999.0,  999.0,  999.0,  999.0,  999.0,  999.0,  999.0,  999.0,  999.0,   -0.5,  999.0,   -0.8,  999.0,   -1.4,   -0.8,   -0.9,   -0.7,  999.0,   -0.8,   -0.4,   -0.3,  999.0,  999.0,   -0.5,   -1.1,   -0.7,   -0.9,   -0.8,   -0.9
2000/10/26 04:10,  999.0,  999.0,  999.0,   -1.0,    0.5,    4.6,    2.5,    0.3,    3.3,    3.0,    3.8,    0.5,  999.0,    3.5,    5.2,    5.9,    1.9,    7.8,    9.6,  999.0,  999.0,  999.0,  999.0,  999.0,  999.0,  999.0,  999.0,  999.0,   34.0,   34.8,   36.5,   37.0,  999.0,  999.0,  999.0,  999.0,  999.0,  999.0,  999.0,  999.0,  999.0,  999.0,  999.0,  999.0,  999.0,  999.0,  999.0,  999.0,  999.0,  999.0,  999.0,  999.0,  999.0,   -0.6,  999.0,  999.0,   -0.6,   -0.2
2000/10/26 04:20,  999.0,  999.0,    3.5,    1.3,    2.5,    0.5,    0.6,   -0.1,   -0.1,    3.7,    4.0,   -9.6,  999.0,  999.0,  999.0,  999.0,  999.0,  999.0,  999.0,  999.0,  999.0,  999.0,  999.0,  999.0,  999.0,  999.0,  999.0,  999.0,  999.0,  999.0,  999.0,  999.0,  999.0,  999.0,  999.0,  999.0,  999.0,  999.0,  999.0,  999.0,  999.0,  999.0,  999.0,  999.0,  999.0,  999.0,  999.0,  999.0,  999.0,  999.0,  999.0,  999.0,  999.0,  999.0,  999.0,   -1.0,  999.0,  999.0
2000/10/26 04:30,  999.0,    2.5,  999.0,    1.5,    1.6,   -1.8,   -0.4,   -1.5,   -1.0,    2.0,    3.6,    3.7,  999.0,  999.0,  999.0,  999.0,    0.4,    0.2,  999.0,  999.0,  999.0,  999.0,  999.0,  999.0,  999.0,  999.0,  999.0,  999.0,  999.0,  999.0,  999.0,  999.0,  999.0,  999.0,  999.0,  999.0,  999.0,  999.0,   -4.6,   -4.6,   -4.5,  999.0,   -2.5,   -0.5,   -1.4,  999.0,  999.0,   -0.9,   -1.3,   -0.3,   -1.1,   -2.2,   -1.7,   -1.6,   -1.3,   -1.2,   -0.9,   -1.3
2000/10/26 04:40,  999.0,    1.1,    5.8,    7.2,    2.4,    3.0,    1.5,    3.7,    7.4,    3.7,    3.3,  999.0,  999.0,  999.0,  999.0,  999.0,    1.3,    6.2,  999.0,  999.0,  999.0,  999.0,  999.0,  999.0,  999.0,  999.0,  999.0,  999.0,  999.0,  999.0,  999.0,  999.0,   -6.6,  999.0,  999.0,  999.0,   -1.6,   -2.6,   -0.6,   -1.0,   -0.6,   -0.4,  999.0,   -0.8,   -1.2,   -0.8,   -1.2,   -0.8,   -0.8,   -0.6,   -1.4,   -0.9,   -0.9,   -0.1,   -0.6,   -1.1,    0.0,   -0.7
2000/10/26 04:50,  999.0,    6.7,    8.1,    8.0,    5.5,    4.6,  999.0,    5.6,    2.0,    2.7,    3.2,  999.0,  999.0,  999.0,  999.0,  999.0,  999.0,  999.0,  999.0,  999.0,  999.0,  999.0,  999.0,  999.0,  999.0,  -12.7,  -11.4,  999.0,   -9.4,  999.0,  999.0,   -5.7,  999.0,   -4.8,  999.0,  999.0,   -1.7,   -1.1,   -1.0,   -1.0,   -0.7,  999.0,   -1.0,  999.0,   -0.4,   -0.9,   -0.5,   -1.4,   -0.2,   -0.9,   -0.5,   -1.3,   -0.8,   -0.4,   -0.2,   -1.1,   -0.7,   -0.8
2000/10/26 05:00,  999.0,    4.0,    6.9,    7.5,  999.0,    4.0,  999.0,    2.2,  999.0,  999.0,    2.3,  999.0,  999.0,  999.0,  999.0,  999.0,  999.0,  999.0,  999.0,  999.0,  999.0,  999.0,  999.0,  999.0,  -10.8,   -9.1,   -8.3,   -8.8,   -9.4,  999.0,   -3.4,   -2.5,   -4.3,  999.0,   -2.1,   -1.0,   -0.9,   -1.7,   -0.5,  999.0,   -0.9,   -0.6,   -0.2,   -0.2,   -0.5,   -0.5,   -0.9,    0.0,   -1.2,   -0.6,   -1.1,   -0.9,   -0.7,   -0.4,   -0.5,   -1.0,  999.0,   -0.2
2000/10/26 05:10,  999.0,    3.2,    6.1,    4.9,    4.4,    3.0,    4.3,    3.1,  999.0,    2.8,    3.4,  999.0,  999.0,  999.0,  999.0,  999.0,  999.0,  999.0,  999.0,  999.0,  999.0,  999.0,  -16.0,  -12.7,  -12.2,  -10.0,   -7.7,   -6.6,   -6.1,   -3.8,  999.0,   -2.4,   -0.5,   -0.6,   -0.7,   -0.2,   -1.2,   -1.2,   -0.5,   -0.6,   -1.0,   -0.8,   -1.5,   -0.8,   -0.6,   -1.0,   -1.0,   -0.8,   -0.1,   -0.4,   -0.9,   -0.6,   -0.6,   -0.5,   -0.3,  999.0,  999.0,  999.0
2000/10/26 05:20,  999.0,  999.0,  999.0,  999.0,    6.0,    6.3,    4.6,    5.5,  999.0,    2.9,  999.0,  999.0,  999.0,  999.0,  999.0,  999.0,  999.0,  999.0,  999.0,  999.0,  999.0,  999.0,  -14.6,  -13.4,  -11.8,  -10.8,   -8.1,   -8.0,   -5.3,   -4.9,  999.0,   -4.4,   -1.0,   -0.7,   -1.2,  999.0,   -0.2,   -0.3,   -0.4,   -0.9,   -0.5,   -0.7,   -0.4,   -0.7,   -0.1,   -1.0,   -0.5,   -0.1,   -1.5,  999.0,   -0.8,   -0.6,   -0.9,   -0.2,    0.1,   -0.9,   -0.6,   -0.6
2000/10/26 05:30,  999.0,    6.9,    7.1,    5.2,    6.0,    2.5,    4.0,    3.9,    2.4,  999.0,  999.0,  999.0,  999.0,  999.0,  999.0,  999.0,  999.0,  999.0,  999.0,  999.0,  999.0,  -11.7,  -12.9,  -12.3,  -11.0,   -9.6,   -7.6,   -7.9,   -5.3,   -4.9,   -2.8,   -1.4,   -1.6,   -0.5,   -0.5,   -1.0,   -0.1,   -0.9,   -1.3,  999.0,   -0.6,   -0.2,   -0.0,   -0.3,   -0.7,   -0.6,   -1.2,   -0.8,   -0.7,   -0.9,   -0.6,   -0.7,   -0.8,   -0.3,   -0.2,  999.0,    0.1,   -0.5
2000/10/26 05:40,  999.0,  999.0,    7.5,    4.9,    2.7,    2.5,    3.0,    2.4,  999.0,  999.0,    3.1,    3.4,  999.0,  999.0,  999.0,  999.0,  999.0,  999.0,  999.0,  999.0,  999.0,  999.0,  -12.9,  -10.9,   -8.7,   -8.0,   -7.5,   -6.1,   -5.2,   -5.3,   -5.2,  999.0,   -3.6,  999.0,   -0.3,    0.1,   -0.4,   -0.5,  999.0,   -0.6,   -0.2,    0.1,   -0.6,    0.3,    0.4,  999.0,   -1.2,   -1.4,   -1.1,   -0.9,   -1.0,   -0.7,   -0.4,   -0.8,   -1.5,   -0.9,   -1.0,   -0.7
2000/10/26 05:50,  999.0,  999.0,  999.0,    6.2,  999.0,  999.0,    2.7,    3.7,    0.7,    1.4,  999.0,  999.0,  999.0,  999.0,  999.0,  999.0,  999.0,  999.0,  999.0,  999.0,  999.0,  999.0,  -11.8,  999.0,   -9.0,   -8.3,   -7.1,   -5.5,  999.0,   -2.8,   -1.4,   -0.6,  999.0,   -0.7,  999.0,  999.0,  999.0,  999.0,   -0.2,   -1.4,  999.0,   -0.6,   -0.6,   -0.6,   -0.5,   -0.5,   -0.4,   -0.6,   -0.4,   -1.5,   -0.3,   -1.2,   -0.0,   -1.0,   -0.8,   -0.7,   -0.7,   -1.2
2000/10/26 06:00,  999.0,  999.0,  999.0,  999.0,    0.9,  999.0,    1.8,  999.0,  999.0,  999.0,  999.0,    3.4,  999.0,  999.0,  999.0,  999.0,  999.0,  999.0,  999.0,  999.0,  999.0,  999.0,  999.0,  999.0,  999.0,  999.0,  999.0,  999.0,  999.0,  999.0,  999.0,  999.0,  999.0,  999.0,  999.0,  999.0,  999.0,  999.0,  999.0,  999.0,  999.0,  999.0,  999.0,  999.0,  999.0,  999.0,   -1.2,  999.0,  999.0,  999.0,   -0.7,  999.0,  999.0,  999.0,   -1.3,  999.0,   -0.7,  999.0
2000/10/26 06:10,  999.0,  999.0,  999.0,  999.0,  999.0,    0.2,   -2.8,  999.0,  999.0,    2.5,    3.8,    5.1,  999.0,  999.0,  999.0,  999.0,  999.0,  999.0,  999.0,  999.0,  999.0,  999.0,  999.0,  999.0,  999.0,  999.0,  999.0,  999.0,  999.0,  999.0,  999.0,  999.0,  999.0,  999.0,  999.0,  999.0,  999.0,  999.0,  999.0,  999.0,  999.0,  999.0,  999.0,  999.0,  999.0,  999.0,  999.0,  999.0,  999.0,  999.0,  999.0,  999.0,  999.0,  999.0,  999.0,  999.0,  999.0,  999.0
2000/10/26 06:20,  999.0,  999.0,    0.7,    6.2,  999.0,  999.0,    0.4,    0.8,  999.0,  999.0,    3.5,  999.0,    1.8,  999.0,  999.0,  999.0,  999.0,  999.0,  999.0,  999.0,  999.0,  999.0,  999.0,  999.0,  999.0,  999.0,  999.0,  999.0,  999.0,  999.0,  999.0,  999.0,  999.0,  999.0,  999.0,  999.0,  999.0,  999.0,  999.0,  999.0,  999.0,  999.0,  999.0,  999.0,  999.0,  999.0,  999.0,  999.0,  999.0,  999.0,  999.0,  999.0,  999.0,  999.0,  999.0,  999.0,  999.0,  999.0
2000/10/26 06:30,  999.0,    6.3,    5.6,    1.3,    4.6,    4.4,    3.5,    2.7,    0.5,    3.3,  999.0,  999.0,  999.0,  999.0,  999.0,  999.0,  999.0,  999.0,  999.0,  999.0,  999.0,  999.0,  999.0,  999.0,  999.0,  999.0,  999.0,   36.5,  999.0,  999.0,  999.0,  999.0,   41.8,  999.0,  999.0,  999.0,  999.0,   42.1,  999.0,  999.0,  999.0,  999.0,  999.0,  999.0,  999.0,  999.0,  999.0,  999.0,  999.0,  999.0,  999.0,  999.0,  999.0,   41.4,  999.0,   42.1,  999.0,  999.0
2000/10/26 06:40,  999.0,    5.5,    6.6,    6.9,    0.3,    1.6,    4.9,    2.1,  999.0,  999.0,  999.0,  999.0,  999.0,  999.0,  999.0,  999.0,  999.0,  999.0,  999.0,  999.0,  999.0,  999.0,  999.0,  999.0,  999.0,  999.0,   36.0,   39.5,  999.0,  999.0,  999.0,   41.8,   41.2,   42.1,   42.0,   42.2,  999.0,   41.8,  999.0,  999.0,  999.0,   41.6,  999.0,  999.0,  999.0,   41.9,  999.0,   41.7,   42.3,   42.4,  999.0,  999.0,   42.4,   41.8,   42.1,   41.9,   41.8,  999.0
2000/10/26 06:50,  999.0,    6.6,    5.8,    1.6,    4.3,    2.6,    3.5,    3.2,    2.3,    1.8,    4.6,  999.0,  999.0,  999.0,  999.0,  999.0,  999.0,  999.0,  999.0,  999.0,  999.0,  999.0,  -13.0,  999.0,   35.7,  999.0,   39.3,   40.1,  999.0,   41.5,   41.7,   41.6,   41.4,   41.3,   41.7,   41.9,  999.0,   42.3,   42.7,   41.9,   42.1,   41.8,   41.8,   41.9,  999.0,   41.9,   41.7,  999.0,   41.8,   41.7,   42.0,   41.7,   41.9,   42.1,   41.5,   41.7,   41.9,  999.0
2000/10/26 07:00,  999.0,    6.4,    5.5,    2.0,    3.5,    2.6,    2.8,    2.5,  999.0,  999.0,  999.0,  999.0,  999.0,  999.0,  999.0,  999.0,  999.0,  999.0,  999.0,  999.0,  999.0,  999.0,  999.0,  999.0,   35.9,   37.1,   37.4,   39.2,   40.7,   40.9,   42.3,   41.4,   42.1,  999.0,   42.2,   41.5,   41.4,   41.7,   41.4,   41.5,   41.8,   41.8,  999.0,   42.1,  999.0,  999.0,   42.0,   41.7,   41.7,   41.7,   41.8,   41.7,   42.2,   42.2,   41.6,   41.2,   42.0,   41.5
2000/10/26 07:10,  999.0,    7.4,    5.4,    5.7,    3.5,    3.4,    2.6,  999.0,  999.0,  999.0,  999.0,  999.0,  999.0,  999.0,  999.0,  999.0,  999.0,  999.0,  999.0,  999.0,  999.0,  999.0,  999.0,  999.0,  999.0,  999.0,  999.0,  999.0,  999.0,  999.0,  999.0,  999.0,  999.0,  999.0,  999.0,  999.0,  999.0,  999.0,  999.0,  999.0,  999.0,  999.0,  999.0,  999.0,  999.0,  999.0,  999.0,  999.0,  999.0,  999.0,  999.0,  999.0,  999.0,  999.0,  999.0,  999.0,  999.0,  999.0
2000/10/26 07:20,  999.0,    6.5,    6.8,    4.3,    3.0,    2.9,    1.1,    3.0,  999.0,  999.0,  999.0,  999.0,  999.0,  999.0,  999.0,  999.0,  999.0,   21.6,  999.0,   29.7,   30.7,   21.9,   11.5,   11.2,   22.9,   22.4,    9.8,    9.0,  999.0,  999.0,  999.0,  999.0,  999.0,  999.0,  999.0,  999.0,  999.0,  999.0,  999.0,  999.0,  999.0,  999.0,  999.0,  999.0,  999.0,  999.0,  999.0,  999.0,  999.0,  999.0,  999.0,  999.0,  999.0,  999.0,  999.0,  999.0,  999.0,  999.0
2000/10/26 07:30,  999.0,    3.9,    4.6,    2.3,    2.2,    2.0,    0.2,   -0.2,   -0.3,  999.0,  999.0,  999.0,  999.0,  999.0,   19.8,  999.0,   16.0,   15.3,   16.2,   14.3,   12.7,   11.9,   10.5,   10.3,    9.4,    7.9,    7.2,    6.3,    4.8,  999.0,    2.7,  999.0,    0.5,    0.6,    0.5,  999.0,  999.0,  999.0,  999.0,  999.0,  999.0,  999.0,    0.8,    1.6,  999.0,    1.6,  999.0,  999.0,  999.0,  999.0,  -41.8,  -41.3,  -41.8,  -42.1,  -42.2,  -41.8,  -41.4,  -42.0
2000/10/26 07:40,  999.0,    5.3,    4.4,    3.2,    2.0,    0.6,    0.8,   -0.3,    3.1,    5.2,  999.0,  999.0,  999.0,  999.0,   18.9,  999.0,   11.4,  999.0,    7.6,    4.2,    7.5,    4.5,    0.6,    1.2,    3.4,    0.8,    0.4,  999.0,    1.0,  999.0,    0.9,  999.0,    0.6,    0.3,  999.0,    0.6,  999.0,    1.3,  999.0,    0.8,    1.0,  999.0,    0.8,    0.7,    0.4,  999.0,    0.7,  999.0,    0.3,  999.0,  999.0,  -41.3,  999.0,  999.0,  -41.9,  -41.7,  -41.9,  999.0
2000/10/26 07:50,  999.0,    2.9,    3.1,    1.7,    2.2,    3.2,    3.3,    0.7,    5.9,    0.8,  999.0,  999.0,  999.0,  999.0,  999.0,  999.0,  999.0,  999.0,    6.1,    0.7,  999.0,  999.0,  999.0,    0.6,    1.4,    0.1,    0.3,    1.8,    0.9,    0.5,    1.1,    0.7,  999.0,  999.0,  999.0,  999.0,  999.0,    0.9,    1.1,    1.4,    0.9,  999.0,    0.5,    0.8,  999.0,    0.4,    0.3,    1.2,    0.4,    1.8,  999.0,  999.0,  999.0,  999.0,  999.0,  999.0,  999.0,  999.0
2000/10/26 08:00,  999.0,    1.8,    2.9,    4.0,    2.1,    3.0,    2.8,    3.9,    4.1,    3.8,  999.0,  999.0,  999.0,  999.0,  999.0,  999.0,  999.0,  999.0,  999.0,  999.0,  999.0,  999.0,  999.0,  -41.4,  999.0,  999.0,  999.0,  999.0,  999.0,  999.0,  999.0,  999.0,  999.0,  999.0,  999.0,  999.0,  999.0,  999.0,  999.0,  999.0,  999.0,  999.0,  999.0,  999.0,    1.2,    0.8,    0.6,    0.8,    0.4,  999.0,  999.0,    0.4,    0.5,    0.3,    0.9,  999.0,    0.3,    0.6
2000/10/26 08:10,  999.0,    0.2,    1.8,    2.4,    1.4,    1.9,    1.6,    1.4,    3.1,    3.7,  999.0,  999.0,  999.0,  999.0,   20.7,  999.0,   21.6,   20.0,   16.9,  999.0,  999.0,   13.0,  -31.4,  -11.2,  -12.7,  -37.0,  -40.5,  -42.0,  -42.1,    2.1,    0.9,  999.0,    0.3,    0.4,    0.5,    0.8,  999.0,  999.0,    0.7,    1.3,    0.1,    8.4,    0.7,    1.3,   15.1,   21.6,   13.5,    0.9,    9.7,    4.9,    0.8,    1.1,    1.1,    0.7,    0.5,    0.5,    1.2,    0.9
2000/10/26 08:20,  999.0,    3.3,    2.7,    1.5,    2.7,    3.3,   -6.5,    0.8,  -21.6,   -9.4,  -20.8,  -21.4,  -21.0,   -4.3,   -7.6,  999.0,   -7.3,   -5.3,  999.0,   -1.3,   -6.9,  999.0,  -16.7,  -11.6,  -21.7,  -32.1,  -26.5,  -41.1,  -41.3,  -41.3,  -41.7,  -42.1,  999.0,  -41.3,  -41.9,  -41.2,  -41.6,  -28.7,  -41.8,  -32.7,  -25.7,  999.0,   -0.7,    0.1,   10.3,    0.3,    0.0,   20.6,   -0.0,   20.4,  999.0,    8.3,   -1.1,    0.4,   10.1,    0.1,   -0.2,    6.4
2000/10/26 08:30,  999.0,  999.0,    4.7,    5.5,   -5.4,    1.3,   -9.0,   -0.9,  -21.2,  -20.8,  -20.7,  -21.3,  -21.4,  -22.3,  -25.3,  -33.4,  -24.3,  -31.8,  -34.1,  -29.8,  -36.6,  -39.4,  -25.2,  -20.3,  -20.9,  -41.5,  -41.8,  -41.2,  -42.0,  -41.4,  -31.3,  -27.6,  -41.7,  -34.8,  -41.7,  -34.7,  -35.1,  -31.1,  -31.2,  -20.0,  -20.6,  -37.0,  -38.8,  -37.3,  -30.9,  -28.8,  999.0,  -24.9,  999.0,  -30.4,   -9.1,  -41.8,  -15.7,  -41.7,  -31.4,  -21.0,    0.5,  -31.7
2000/10/26 08:40,  999.0,  999.0,   -7.8,  999.0,  -20.9,  -21.5,  -21.1,  -21.3,  -21.2,  -20.2,  -20.5,  -20.9,  -20.4,  -21.0,   -8.1,   -9.1,   -2.2,   17.9,   -1.5,   -0.7,   20.0,   -1.0,   -1.1,   -0.8,   -1.0,   -0.7,  -11.0,   -7.5,   -7.7,   -1.3,   -9.6,  -19.9,   -6.4,   -2.7,   -0.8,  -10.4,   -9.7,   -4.4,   -6.7,  -32.6,   -0.8,   -0.9,  -11.9,   -0.7,   42.1,   13.3,   -0.8,    8.9,   -4.8,    3.8,   -2.4,   21.2,   -2.0,  -35.4,  -39.6,  -41.2,   -0.1,  -27.1
2000/10/26 08:50,  999.0,  999.0,  -21.1,  999.0,   -8.2,   -9.5,   -5.4,  -14.2,   21.6,    0.2,  999.0,   -0.0,  999.0,    0.4,  -20.8,    3.3,   20.9,    3.9,   22.0,    5.4,   23.0,   16.6,   41.8,   26.0,    7.2,   -0.8,   10.7,   -0.4,   41.4,   20.6,   23.8,   20.9,   21.3,   29.6,   22.1,   38.2,   31.3,   19.6,   16.7,   16.8,   10.3,   34.9,   31.4,   41.6,   20.8,   41.8,   23.4,   -0.2,   21.1,   21.0,   10.3,   41.1,    0.8,   13.9,  -10.3,   14.1,   20.5,   13.8
2000/10/26 09:00,  999.0,  999.0,  999.0,    0.2,    3.3,   -1.3,   -9.5,  999.0,  999.0,  -20.7,  999.0,    0.1,   21.0,   -7.5,   21.8,   14.5,   12.7,   25.4,   19.1,   19.0,   -0.8,   32.1,   41.7,   13.1,   27.8,   41.9,   11.2,   20.2,   10.8,    1.6,    1.1,  999.0,   -1.6,    2.5,   15.2,   12.6,   -3.5,   16.9,  -12.9,   -0.6,  -21.5,   -7.0,   -0.6,   30.0,   12.4,  999.0,    6.6,   -0.8,    8.5,    3.0,   -8.7,   14.8,   -2.1,   11.0,   16.7,  -14.6,  -11.6,    7.8
2000/10/26 09:10,  999.0,  999.0,    3.0,    1.9,    0.7,    1.9,    0.7,   -0.2,  999.0,  999.0,    2.2,    3.6,    4.3,    3.8,    1.8,   11.7,   13.6,   14.6,   32.7,   17.5,   19.4,   20.6,   20.9,   20.9,   41.5,   20.7,   41.6,  999.0,   13.2,   -0.6,    1.4,    5.3,   18.5,   -0.7,    2.6,    7.9,   -1.4,   -2.1,   -1.5,   -1.3,   -1.2,   17.9,   28.0,   -0.7,   20.9,   31.2,   13.4,   13.6,   23.3,    5.8,    9.2,   16.8,    7.6,   20.2,   -0.9,  -10.4,   -6.9,    3.6
2000/10/26 09:20,  999.0,  999.0,  999.0,   -0.1,    1.1,   -2.1,   -9.5,    0.6,  -21.7,  -27.2,  -22.1,   -8.9,  -16.6,   -2.1,  -15.0,   -0.0,   22.8,   26.1,  -41.3,    0.9,   36.4,   -0.7,    9.4,   20.6,    0.1,  -10.6,  -20.7,  -10.2,   10.9,   32.1,   15.3,  -20.2,   -9.7,   -6.5,   26.6,    0.3,   -9.8,   -0.8,   13.9,   13.0,   10.8,   10.7,   14.4,   28.3,   28.2,   14.1,   14.1,   30.5,   -0.1,   26.3,   42.3,   22.3,   42.2,   42.2,   42.0,   28.3,   41.6,   42.1
2000/10/26 09:30,  -42.1,  999.0,  999.0,  999.0,  999.0,  999.0,  999.0,  -21.3,  999.0,  999.0,  -18.6,  -17.1,  -16.4,  -15.0,  999.0,  999.0,  999.0,  999.0,  999.0,  999.0,  999.0,    1.2,    0.7,    0.1,    0.3,    0.2,    0.8,    0.9,    0.6,    0.5,    0.3,    0.8,    0.3,    1.3,    3.1,    5.4,    7.6,    8.8,    9.3,   12.2,   15.1,   15.8,   15.5,   16.5,   18.1,   22.7,   25.3,   26.7,   25.0,   28.5,   31.0,   33.2,  999.0,   36.1,   36.2,   37.1,   39.8,   41.9
2000/10/26 09:40,  -41.9,  999.0,  999.0,  999.0,  -36.1,  -34.5,  999.0,  -21.7,  -24.3,  -29.8,  -19.3,  -11.1,    1.8,  -14.6,  -41.9,  999.0,  999.0,  -41.5,    0.7,  999.0,  -10.2,   -0.1,    0.4,    0.6,    0.4,   -9.7,   -9.7,   -9.9,    0.5,   -9.8,  999.0,    0.6,    1.1,  999.0,  999.0,    6.8,    2.5,   26.0,    5.6,   20.1,   18.2,   18.2,    9.6,   -0.5,   11.6,  999.0,  999.0,   30.1,   37.4,   32.2,   34.0,   15.3,   18.4,   -3.7,   20.6,   41.5,   41.7,   27.4
2000/10/26 09:50,  999.0,  999.0,   -0.4,    0.0,    0.5,   -4.4,   -1.2,  999.0,   -0.4,  -21.3,  -21.4,  -21.3,  -21.5,  -24.5,  -31.5,  -37.6,  -41.6,  999.0,  999.0,  -41.6,  -41.9,  -33.4,    0.2,   -6.7,   -4.6,   42.0,   -0.3,   -0.0,   42.2,   41.6,   42.5,  -42.3,   16.0,   41.8,    9.2,   25.6,   17.1,   11.1,   39.0,   20.8,   15.1,  -31.5,   13.9,   35.7,   23.9,   11.5,    4.4,   -7.2,   -2.7,  -10.2,  -19.2,  -24.6,  -21.1,  -20.0,   15.9,   -1.2,    4.3,   -5.3
2000/10/26 10:00,  999.0,  999.0,   -0.3,    0.8,    1.7,  999.0,  999.0,  999.0,  -21.5,  999.0,  -21.2,  -28.7,  -36.4,  -23.0,  -36.7,  -35.2,  -30.5,  -31.5,  -27.0,  -32.1,  -26.2,  -39.8,  -19.5,  999.0,  -34.7,  -20.5,    0.5,    0.6,   -0.1,  -14.0,  -41.5,  -21.0,    0.7,  -20.4,  -20.8,    1.0,    0.4,    0.3,    5.0,  -13.4,  999.0,    0.6,  -32.3,    0.9,    9.0,    4.6,   11.9,    4.6,   15.8,  -42.3,  -20.9,   20.6,  -41.3,    5.2,    1.0,  -27.6,  -13.9,  -35.5
2000/10/26 10:10,  999.0,  999.0,  999.0,  999.0,  999.0,   -0.3,  999.0,  999.0,   -3.0,  999.0,  999.0,  -24.1,  -26.7,  -28.5,  -29.5,  -31.4,  -32.9,  -37.0,  -36.7,  -37.9,  -39.0,  -39.9,  -40.4,  -41.0,  -42.2,  -42.3,  -41.6,  -41.1,  -42.3,  -41.8,  -41.7,  -42.0,  -41.7,  -42.0,  -43.3,  -42.1,  -41.8,  -41.6,  -41.7,  -41.9,  -39.4,  -39.5,  -42.3,  -38.7,  -35.4,  -41.6,  -33.6,  -41.6,  -30.0,  -34.9,  -34.7,  -34.7,  -37.6,  -21.9,  -41.9,  -41.7,  -41.4,  -35.2
2000/10/26 10:20,  999.0,  999.0,  999.0,  999.0,  999.0,  999.0,  999.0,  999.0,  -29.0,  -31.7,  -34.0,  -33.1,  -39.3,  -40.5,  999.0,  999.0,  999.0,  999.0,  999.0,  999.0,  999.0,  999.0,  999.0,  999.0,  999.0,  999.0,  999.0,  999.0,  999.0,  999.0,  999.0,  999.0,  999.0,  999.0,  999.0,  999.0,  999.0,  999.0,  999.0,  999.0,  999.0,  999.0,  999.0,  999.0,  999.0,  999.0,  999.0,  999.0,  999.0,  999.0,  999.0,  999.0,  999.0,  999.0,  999.0,  999.0,  999.0,  999.0
2000/10/26 10:30,  999.0,   -2.0,   -1.3,   -1.4,   -1.4,   -1.3,   -1.4,  -21.4,  -20.6,  -18.4,  -14.7,  -10.8,   -7.1,   -3.4,   20.5,   20.5,    2.3,   -5.1,   -6.4,   -9.9,  -10.2,   -0.3,    0.9,    9.3,  -18.8,   10.0,   -0.4,   -7.5,  -14.6,   -7.0,   -7.4,   -8.7,   -2.1,  -11.6,   -2.9,   -0.4,  -11.8,  -12.4,   -4.7,   -0.2,  -20.1,  -16.4,  -32.4,  -18.3,  -19.9,  -21.2,  -21.2,  -27.9,  -13.8,  -21.6,  -28.3,  -21.8,  -21.5,  -21.1,  -20.9,  -21.4,  -21.4,  -21.3
2000/10/26 10:40,  999.0,   -0.8,   -0.6,   -0.3,   -0.6,   -0.9,   -0.6,    0.5,    1.5,    1.6,   -0.9,  999.0,  999.0,   -2.8,   32.5,   14.9,   10.4,  -10.3,   14.7,   -4.7,   12.6,   13.6,   13.4,   20.5,   13.3,   13.6,   13.5,   -0.5,   13.6,   41.8,   20.6,   15.9,    7.0,    6.4,  -11.0,    3.0,    3.1,   20.5,    6.5,    7.4,    8.8,   20.6,   -4.2,   12.8,   -1.1,   -0.8,   13.4,   13.8,   -0.1,   13.6,  999.0,   20.4,   41.4,   13.3,   20.5,   -0.5,   13.7,   -1.1
2000/10/26 10:50,  999.0,   -0.8,   -0.7,   -0.3,   -0.8,   -0.6,   -0.3,   -0.6,   -0.7,    0.1,    2.0,  999.0,  999.0,  999.0,  -13.3,  -11.1,   -9.1,   -6.9,   -4.5,   21.5,  -20.9,  -14.1,    0.6,    4.4,   -9.2,   -8.1,   -3.8,    1.1,  -12.0,   24.5,   -4.4,  -10.7,    1.2,   -2.9,  -16.3,   20.4,   -3.8,    2.7,   20.3,  -12.6,   -3.9,  -10.7,   10.0,   -5.0,  -27.3,   13.7,   -6.2,    4.2,   15.6,   -0.7,    0.1,  -20.6,   14.3,    3.3,    9.9,   31.9,   20.2,    0.1
2000/10/26 11:00,  999.0,   -1.3,    0.8,    3.4,    0.5,    0.9,    1.4,    1.4,   -1.3,    2.0,    0.5,    2.2,   12.9,  -12.9,  -21.0,  -20.8,  -18.7,  -16.7,  -14.4,  -12.6,   -8.7,   -8.9,    7.1,   -4.7,   -2.4,   -0.7,   -0.7,   -0.4,   -0.7,  999.0,    1.7,   -0.9,   -1.0,   -0.6,   -1.2,   -0.9,   -5.3,  -17.1,   -1.8,   -4.9,   -1.2,   -9.7,  999.0,   -7.0,    0.4,  999.0,  -10.9,  999.0,  -13.4,  999.0,  999.0,    0.3,    0.1,    0.2,  999.0,  -13.4,  -20.2,    0.8
2000/10/26 11:10,  999.0,  999.0,   -2.1,    0.1,    1.6,    0.9,    0.1,    0.5,    1.0,    0.9,    2.4,    2.2,    2.6,    4.0,    5.2,  999.0,  999.0,    1.4,    7.9,    3.6,    0.6,  999.0,    0.6,    0.5,  999.0,    0.9,  999.0,    0.2,  999.0,    1.2,   13.5,   -0.9,   -0.7,   -1.3,   -0.8,   -0.2,    6.6,   -0.4,   10.4,    5.6,    4.5,  999.0,   32.3,   -0.1,    2.5,    0.5,  999.0,  -41.7,    0.7,  999.0,    0.7,    0.3,    1.0,    0.8,    0.6,    0.8,  999.0,    0.9
2000/10/26 11:20,  999.0,   -0.2,   -2.8,   -1.0,    0.1,    3.1,   -2.6,    0.3,    1.8,    2.5,    2.0,    3.4,    4.3,    4.2,   -0.0,   -3.1,  999.0,    3.8,    0.5,    0.5,    0.6,    0.6,    0.9,    0.8,  -41.8,  -13.4,    1.0,  -20.8,  -13.5,  -20.3,    0.9,    1.2,  -20.4,   -7.2,  -20.5,    0.6,  -42.2,    0.1,  -42.2,   -0.1,    0.1,  999.0,  -41.7,    0.4,   -0.0,   41.4,  999.0,  -41.9,    0.1,   -0.3,   41.8,    0.0,   41.5,   -0.2,   39.6,  -42.8,  -42.2,  -42.4
2000/10/26 11:30,  999.0,    0.4,    1.1,   -2.7,   -3.0,   -3.4,   -1.8,    0.2,    1.3,    1.7,    0.1,   -1.9,   -0.8,   -7.9,  -10.0,  -11.0,  999.0,    0.8,    0.7,    1.0,  -13.5,  -13.1,  -13.6,  -20.6,  -41.4,  -20.4,  -42.2,  -28.0,  -41.6,  -20.6,  -20.8,  -41.6,  -27.6,  -27.7,  -20.7,  -41.8,  -20.4,  -41.9,  -27.7,  -42.0,  -42.2,  -27.5,  -27.7,  -27.6,  -20.3,  -27.8,  -34.9,  -27.6,  -41.8,  -34.9,  -42.0,  -34.7,  -42.1,    0.4,  -42.0,  -34.9,  -41.8,  -27.6
2000/10/26 11:40,  999.0,   -0.8,   -0.1,   -1.7,   -2.6,   -4.3,   -2.7,   -1.8,   -0.8,    0.1,   -0.2,   -2.5,   -1.7,   -1.0,    0.2,  -14.4,  -12.9,  999.0,   35.7,   37.3,   39.1,   40.5,   42.2,   18.3,    7.9,   -0.1,   10.9,   10.4,   -0.2,   -7.0,  -31.8,  -42.2,   -1.0,   -5.4,   -6.9,  -11.8,  -34.7,  -31.5,  -33.8,   11.7,  -26.7,   10.3,  -11.6,  -25.9,  -42.0,  -27.4,  -28.1,  -25.9,   -0.2,  -13.4,  -27.7,   20.6,  -21.4,  -11.4,  -24.8,  -27.8,   -1.0,   20.9
2000/10/26 11:50,  999.0,    1.1,   -0.6,   -0.3,   -4.6,   -0.7,   -0.8,    1.1,    1.9,    3.1,    5.9,    8.5,   14.9,   19.2,   40.2,   30.2,   34.7,   39.9,   41.0,   42.1,   42.0,   42.2,   42.0,   39.8,   21.4,   21.4,   26.4,   42.0,   26.6,   41.9,   30.0,   30.9,   31.6,   13.0,   13.2,   10.4,   15.9,   41.7,   17.7,    5.5,   10.4,   20.9,   -0.3,   20.6,   -1.0,   20.5,   32.5,   14.7,   18.9,   20.7,   20.3,   20.5,   20.6,   28.0,   27.8,   27.8,   20.4,   27.7
2000/10/26 12:00,  999.0,   -0.1,   -1.1,   -2.0,   -1.3,   -1.6,   -1.1,   -0.1,    0.7,    1.2,    0.4,    1.6,    5.8,    8.1,  999.0,  999.0,  999.0,  999.0,   15.0,    0.5,    9.8,  999.0,   21.2,   21.6,   25.4,   28.7,   31.8,   21.1,   31.6,   31.6,   31.7,   31.8,   31.9,   21.3,    6.0,   28.6,   24.7,   27.8,   31.4,   34.3,   39.5,   41.7,   32.2,   21.3,   21.5,   21.6,   21.3,   27.5,   39.3,   31.5,   17.2,   38.6,   22.6,   29.9,   10.9,   11.6,   21.2,   31.4
2000/10/26 12:10,  999.0,    0.7,    0.4,    0.2,  999.0,  999.0,   -1.4,    0.7,    1.8,    1.6,    1.5,    2.0,    2.9,   18.8,   14.3,   24.7,   20.5,   22.4,    2.9,  999.0,  999.0,  999.0,  999.0,   23.0,   11.0,    9.8,   11.6,    3.5,    2.8,    9.7,   12.7,   11.4,    1.5,    8.4,    0.9,    1.4,   -6.6,   -3.3,   12.7,   -3.1,  -20.5,  -20.6,   -5.7,    8.2,   -6.6,    2.8,    0.3,   -5.0,   -8.2,    2.9,  -20.6,   -5.9,  -20.6,  -20.8,    1.2,  -20.2,  -13.3,  -20.7
2000/10/26 12:20,  999.0,  999.0,  999.0,  999.0,    1.9,    0.6,   -0.1,    0.2,    0.8,    2.8,    1.9,    1.4,    1.0,    3.6,    2.3,    5.9,   16.4,  999.0,  999.0,  999.0,   15.2,   12.9,   10.9,   11.4,    9.4,    4.5,    2.6,    0.4,    3.2,    0.7,    1.1,    0.8,    0.9,    1.1,    0.6,    0.4,    3.1,   14.1,   15.3,    8.0,    7.7,   21.8,    8.8,    2.8,    3.4,    0.2,    1.1,    0.8,    0.4,    0.7,    2.1,    7.7,   11.0,    7.6,    8.0,    0.6,   11.2,    0.4
2000/10/26 12:30,  999.0,  999.0,   -2.2,   -1.5,   -1.9,   -0.9,   -1.0,   -0.7,   -0.5,    0.2,    2.4,    5.5,    7.7,   11.3,   10.1,   10.5,  999.0,  999.0,  999.0,  999.0,  999.0,   19.8,   14.7,    9.6,   14.1,    8.0,   21.4,    1.1,    0.6,    0.8,    0.7,    1.0,    0.7,    0.7,    1.0,    3.0,    6.6,   11.9,   10.3,    8.4,    0.6,   17.3,   20.2,   21.3,    9.1,    0.9,    1.1,    5.4,    5.8,    8.9,    0.9,    7.7,   12.0,   13.9,    7.2,    0.6,   11.2,    1.1
2000/10/26 12:40,  999.0,  999.0,  999.0,   -0.7,   -0.5,   -0.8,   -1.1,   -0.4,    0.3,    1.8,    0.6,    3.1,    7.9,    4.0,  999.0,  999.0,  999.0,    3.1,    5.1,    4.3,    3.1,    1.8,    7.6,    0.7,    7.4,    4.0,    2.9,    1.8,    0.7,    0.6,    0.5,    0.9,    0.9,    0.9,    0.8,    0.7,    0.9,    0.6,    0.6,    0.7,    0.7,    0.8,    0.8,    0.8,    0.9,    0.6,    0.5,    0.9,    0.7,    0.8,    0.5,    0.5,    0.9,    0.3,    0.8,    0.5,    1.2,    0.9
2000/10/26 12:50,  999.0,  999.0,  999.0,   16.9,    7.6,    4.1,   11.8,    7.8,   -0.2,    1.9,    1.6,   13.4,   14.4,   14.0,   24.1,   23.6,   41.4,   42.2,   29.4,   20.8,   18.9,   41.7,   29.3,   42.0,   41.9,   21.6,   41.6,  999.0,   41.6,  999.0,   42.5,   42.2,   42.2,   41.8,   41.8,   22.2,   21.7,   41.6,   41.7,   21.5,   42.2,   42.3,   21.4,   21.3,   21.4,   42.1,   41.9,  999.0,   21.6,   21.2,  999.0,   19.6,   26.2,   27.3,   15.6,   41.6,   21.6,   31.1
2000/10/26 13:00,  999.0,  999.0,  999.0,  999.0,  999.0,  999.0,   20.3,  999.0,  999.0,  999.0,  999.0,  999.0,  999.0,  999.0,   15.5,   15.9,   -3.7,   -2.3,    0.2,  -42.2,    0.7,    6.5,    2.8,   18.8,    3.0,    7.2,   10.5,    0.8,    1.4,    3.8,    4.8,   10.4,   13.7,   11.5,   14.1,   17.6,    8.6,    0.6,    2.1,    0.6,    3.8,    0.9,   11.3,    3.6,    7.0,    4.3,    8.7,   14.0,   14.4,   23.8,   38.0,   20.1,   16.6,   21.4,   21.0,    7.7,   -0.1,    0.6
2000/10/26 13:10,  999.0,  999.0,  999.0,  999.0,  999.0,  999.0,  999.0,  999.0,  999.0,  999.0,    0.5,   -9.2,   -5.6,    1.6,    0.9,  -14.5,    0.7,  999.0,   11.0,   13.9,   22.1,   21.1,   22.8,   25.1,   24.8,   27.3,   28.3,   29.2,   29.0,   28.8,   21.4,   21.3,   21.4,   28.4,    1.2,   28.7,   28.4,   28.4,   28.1,    1.0,   28.2,   21.4,   21.2,   21.4,   21.1,   21.6,   21.4,   21.1,   21.5,   21.2,   42.2,    0.8,   21.6,   21.6,   21.4,   41.2,   21.2,   21.4
2000/10/26 13:20,  999.0,  999.0,  999.0,  999.0,    1.3,    0.5,    0.2,  999.0,   -0.2,    1.3,    1.9,    1.4,    0.1,    0.4,    0.6,    3.3,    2.6,  999.0,  999.0,    0.8,  999.0,  999.0,  999.0,   -1.3,   -1.0,   21.0,   21.0,   21.1,   20.4,   20.3,   21.1,   27.8,   27.5,   34.3,   24.4,    8.8,    9.5,    6.2,   21.9,   20.9,   37.2,   20.8,    9.8,   20.7,   12.6,   41.8,   37.1,   33.0,   26.6,   27.8,   38.4,    8.8,   14.0,   28.1,   22.2,   35.3,   42.0,   22.4
2000/10/26 13:30,    0.2,  999.0,  999.0,   -0.8,   -0.9,   -0.9,   -1.1,   -1.3,   -1.1,   -2.2,   -1.0,   -0.7,   -0.9,   -1.0,   -1.3,   -1.4,   -0.7,   -0.7,   -0.7,   -0.5,   -0.5,  999.0,   -0.7,   -0.9,   -0.9,   -0.6,   -0.6,  -20.8,  -11.0,  -11.0,   -2.2,   -9.5,   -0.7,    5.7,   -3.4,   -0.5,   -0.9,   -0.7,   -0.7,   -4.6,  -10.8,  999.0,  -16.6,   -0.6,    4.1,   -7.1,   11.4,    4.6,  -31.1,  999.0,    7.9,   17.6,  -40.6,    3.6,    7.1,   -0.8,   20.5,   13.4
2000/10/26 13:40,  999.0,  999.0,  999.0,   -1.0,   -0.5,   -1.1,   -1.0,   -0.8,   -0.7,    3.0,    3.0,    6.9,    3.2,   10.8,    3.3,    3.4,   -0.4,   -0.9,   -0.5,   -0.6,   -0.5,   -0.8,   -0.8,   -1.0,   -1.2,   -0.8,   20.4,    6.4,   20.2,   -1.1,   -0.7,   13.5,   -1.1,   10.0,    6.4,   -0.6,   -0.6,    6.3,   -1.2,   20.4,   10.0,   -1.0,    6.4,   13.1,   -0.3,   -0.4,   20.6,    6.3,   -0.5,    6.8,   10.0,   -0.9,   -0.5,   -0.7,   -0.7,   10.1,   -0.8,    6.2
2000/10/26 13:50,  999.0,  999.0,  999.0,   -0.5,    0.1,   -0.3,   -0.7,   -0.6,   -1.2,   -0.6,   -0.5,   -0.7,   -0.8,   -0.7,   -1.0,   -0.7,   -0.6,   -1.0,   -0.9,   -0.8,   -0.9,   -0.9,   -0.8,   -0.6,   -0.8,   -0.7,   -0.9,   -0.9,   -0.7,   -0.6,   -0.6,   -0.6,   -0.5,   -0.6,   -1.1,   -0.9,   -0.8,   -0.8,   -0.9,   -0.8,   -0.7,   -0.7,   -0.7,   -0.6,   -0.7,   -0.6,   -0.6,   -0.7,   -0.5,   -0.7,   -0.8,   -1.0,   -0.7,   -0.9,   -0.9,   -1.1,   -1.0,   -0.7
2000/10/26 14:00,  999.0,  999.0,  999.0,   -0.7,   -0.6,   -0.8,   -1.0,   -0.4,   -0.7,   -0.7,   -0.7,   -0.7,   -0.6,   -0.5,   -0.4,   -0.7,   -0.7,   -0.5,   -0.6,   -0.7,   -0.9,   -0.9,   -0.7,   -0.8,   -0.5,   -0.7,   -1.0,   -0.8,   -0.4,   -0.9,   -1.1,   -0.3,   -0.6,   -0.6,   -0.4,   -1.0,   -1.0,   -0.7,   -0.5,   -0.7,   -0.6,   -0.9,   -0.7,   -0.4,   -0.7,   -1.0,   -0.7,   -0.8,   -0.5,   -0.8,   -0.8,   -0.9,   -0.7,   -0.5,   -0.5,   -0.5,   -1.0,   -0.9
2000/10/26 14:10,  999.0,  999.0,  999.0,  -11.1,   -7.2,  999.0,   -2.2,    0.3,    0.0,   -3.6,   -0.8,    0.9,    1.2,   -2.2,  -15.7,   -1.1,   -3.9,   -0.6,   -1.0,   -0.2,   -1.0,   -1.2,   -1.2,   -0.8,   20.2,   20.9,   31.1,   -0.9,    9.9,    9.6,   -0.8,   13.1,    6.4,    6.2,   20.9,   10.0,   13.7,   41.6,   -0.6,   -0.6,   13.3,   13.5,   20.1,    6.4,    9.9,    9.6,   20.7,   13.5,   41.6,   13.5,   -0.7,   -1.0,   10.0,   13.4,   20.5,   13.2,   -0.6,   -0.8
2000/10/26 14:20,  999.0,  999.0,    0.4,    0.3,    0.2,    0.0,    0.0,    0.2,  999.0,    2.9,    2.1,    1.3,   -0.5,  999.0,  999.0,   13.7,   15.9,   17.8,   13.5,    3.3,   23.1,   25.8,   17.5,   35.3,   38.8,   41.2,   21.4,    0.7,   32.0,   31.6,   41.6,   34.8,   21.0,   29.8,   41.8,   36.6,   32.7,   16.7,    4.8,    0.7,    1.2,   11.1,    0.8,    1.1,    1.0,    0.5,   11.2,    0.7,    1.0,    1.1,    0.7,  999.0,    0.7,    2.2,   21.3,   21.0,    1.3,    1.5
2000/10/26 14:30,  999.0,  999.0,    0.4,    0.3,    0.2,    0.1,    0.1,    0.8,    1.7,    3.2,    4.3,    5.3,  999.0,  999.0,  999.0,   29.2,   32.2,   33.3,   32.3,   37.7,   41.9,   40.8,   41.5,   41.4,   41.9,   41.9,   41.9,   41.7,   41.9,   42.1,   41.9,   41.8,   41.8,   42.3,   41.8,   40.0,   36.4,   41.3,   34.7,   15.2,  999.0,   22.4,   21.4,   21.2,   18.4,    7.8,    2.1,    5.2,   11.4,   19.8,   10.8,   11.0,    8.6,   14.5,   14.6,   14.1,    8.9,    3.1
2000/10/26 14:40,  999.0,  999.0,    1.3,    0.2,    0.1,   -0.0,    0.2,    0.9,    1.8,    3.4,    4.5,    4.1,    3.7,  999.0,  999.0,  999.0,  999.0,   31.3,   35.5,   38.7,   41.8,   41.1,   42.2,   42.2,   42.1,   42.3,   41.7,   41.5,   41.8,   41.8,   41.8,   41.8,   41.8,   41.9,   41.6,   42.0,   28.1,   29.5,   32.0,   33.8,   24.0,   21.2,   23.3,   25.9,   32.3,   38.5,   39.3,   35.0,   30.9,   32.7,   37.5,   15.7,   21.1,   14.7,   14.4,   14.5,   12.2,   10.4
2000/10/26 14:50,  999.0,  999.0,  999.0,    0.2,    1.6,    1.7,    1.0,    2.1,    4.4,    4.3,    4.5,    4.2,    4.9,  999.0,  999.0,  999.0,   13.8,   20.7,   37.5,   29.8,   34.7,   38.8,   42.0,   28.0,   28.8,   41.9,   28.6,   41.4,   35.3,   31.7,   34.8,   40.8,   41.8,   42.3,   41.5,   42.1,   41.7,   42.0,   41.6,   42.1,   42.0,   42.2,   41.9,   41.8,   41.4,   41.7,   41.8,   41.9,   41.9,   42.2,   42.3,   41.6,   41.7,   41.4,   41.9,   41.9,   35.7,   29.4
2000/10/26 15:00,  999.0,  999.0,  999.0,  999.0,  999.0,  999.0,    2.2,  999.0,    5.7,    7.7,    7.1,  999.0,  999.0,  999.0,  999.0,  999.0,   36.9,   41.6,   37.6,   41.6,   41.9,   41.5,   41.6,   42.2,   41.7,   41.8,   40.9,   42.1,   41.7,   41.7,   41.5,   41.6,   41.8,   41.8,   41.7,   41.5,   41.7,   41.8,   41.6,   41.4,   41.8,   41.7,   41.8,   41.5,   41.9,   41.9,   41.8,   41.9,   41.7,   41.7,   41.6,   41.6,   41.6,   41.8,   41.9,   42.3,   41.8,   42.2
2000/10/26 15:10,  999.0,  999.0,   -0.1,    0.2,    1.1,    0.7,    0.7,    0.9,    2.4,    3.8,    5.4,  999.0,  999.0,  999.0,  999.0,  999.0,   36.2,   39.7,   41.5,   41.9,   41.9,   41.8,   41.6,   41.9,   41.7,   41.7,   41.7,   41.9,   42.2,   41.6,   41.8,   42.0,   41.9,   41.6,   41.7,   41.6,   41.8,   41.7,   41.6,   41.7,   41.8,   41.7,   41.8,   41.8,   41.9,   41.8,   41.9,   42.0,   42.0,   41.8,   41.4,   41.8,   42.0,   41.9,   41.9,   42.0,   41.9,   41.9
2000/10/26 15:20,  999.0,  999.0,   -0.1,    0.6,    2.4,    1.7,    1.4,    2.1,    3.1,    5.1,    5.4,  999.0,  999.0,  999.0,  999.0,   34.3,  999.0,   42.3,   42.2,   41.9,   42.1,   42.1,   41.9,   42.3,   42.0,   42.0,   42.4,   42.4,   42.0,   42.2,   42.0,   41.8,   41.9,   42.3,   41.8,   42.1,   42.2,   41.8,   41.8,   41.8,   42.0,   42.0,   41.6,   42.2,   42.3,   41.6,   41.7,   41.7,   41.7,   41.7,   41.9,   41.7,   41.9,   41.6,   42.0,   42.0,   41.8,   42.1
2000/10/26 15:30,  999.0,    0.7,    0.7,    1.1,    1.1,    1.4,    1.1,    2.8,    2.4,    4.5,    3.8,    5.8,    8.4,  999.0,  999.0,   31.8,   33.2,   37.7,   40.7,   41.4,   41.7,   41.8,   41.5,   42.3,   41.9,   41.7,  999.0,  999.0,  999.0,  999.0,   41.6,   41.3,   41.4,   41.9,   41.6,   41.6,   41.5,   41.8,   41.5,   41.8,   42.0,   41.7,   41.3,   42.0,   41.6,   41.7,   40.1,   34.9,   31.7,   33.6,   39.8,   42.1,    3.2,   31.6,   32.2,   41.5,   41.8,   22.2
2000/10/26 15:40,  999.0,    0.3,    0.6,    0.3,    0.8,    1.1,    1.9,    4.2,    5.4,    6.6,    6.2,    9.4,  999.0,  999.0,  999.0,   29.1,   31.9,   33.4,   35.2,   36.9,   38.8,   40.4,   41.9,   41.7,   41.9,   41.8,   41.7,   42.1,   42.1,   41.9,   41.7,   41.7,   42.3,   41.9,   42.0,   42.1,   42.2,   41.8,   41.9,  999.0,   42.1,   41.9,   41.9,   42.0,   42.1,   41.8,   42.1,   42.1,   42.0,   41.6,   41.6,   41.9,   42.1,   41.8,  999.0,   41.8,   41.9,   41.4
2000/10/26 15:50,  999.0,    0.4,    0.6,    0.1,    0.7,    0.7,    2.1,    5.6,    4.6,    5.5,    5.0,    8.0,  999.0,  999.0,   23.3,   26.5,   28.0,   30.3,   32.5,   35.0,   37.0,   39.5,   41.6,   42.0,   41.6,   41.8,   41.9,   41.7,   42.1,   42.0,   42.1,   41.6,   41.7,   41.8,   41.7,   41.6,   41.4,   41.7,   41.7,   41.8,   42.0,   41.7,   41.8,   41.7,   41.8,   41.9,   41.6,   41.7,   42.2,   42.1,   41.9,   41.6,   42.1,   41.8,   41.3,   41.3,   41.6,   41.6
2000/10/26 16:00,  999.0,    2.1,    1.5,    2.5,    3.3,    3.6,    1.8,    6.2,    5.7,    6.5,    4.7,    3.2,    1.9,   14.4,   22.0,   21.6,   26.1,   11.0,   23.3,   32.8,   25.5,   30.0,   32.0,   42.4,   41.3,   41.7,   41.6,   42.0,   41.3,   23.2,  999.0,   37.5,   41.8,   32.0,   31.9,   41.5,   28.3,   29.0,   33.6,   36.2,   41.7,   28.1,   41.3,   28.7,   41.2,   41.5,   27.6,   20.7,   34.7,   20.7,   35.0,   31.4,   27.6,   41.9,   41.9,   41.8,   42.3,   41.5
2000/10/26 16:10,  999.0,    1.0,  999.0,  999.0,  999.0,    5.3,    5.6,    8.7,    7.2,    7.1,    3.1,    3.2,    3.7,  999.0,  999.0,   24.0,   26.2,   26.1,   29.9,   28.8,   19.4,   18.6,   29.7,   37.2,   27.8,   19.1,   15.5,   14.5,   14.4,   14.3,   42.0,   27.9,   25.3,   14.4,   14.1,    7.4,   17.0,   14.7,   10.7,   15.3,   20.3,    0.5,    5.8,   25.0,   16.9,   13.9,   29.4,   26.3,   40.5,   32.0,   41.9,   12.8,  999.0,   21.1,   21.3,    0.7,   21.9,   21.9
2000/10/26 16:20,  999.0,    0.3,    0.7,    0.3,    0.6,    2.6,    3.5,    3.6,    3.2,    4.0,    2.9,    2.1,    3.0,    3.6,    3.4,    9.1,  999.0,   24.4,   28.2,   31.0,   26.9,   19.0,   39.2,   21.5,   21.5,   22.1,   32.9,   22.4,   22.6,   26.7,   14.2,    0.7,    0.9,  999.0,  999.0,  999.0,  999.0,  999.0,   42.4,   42.6,   42.6,   42.6,   41.8,   42.1,  -41.8,   19.3,  -22.2,   -7.7,  -21.0,  -14.3,   -0.6,    9.9,   -0.6,   20.6,   41.5,   41.8,  999.0,   20.6
2000/10/26 16:30,  999.0,    0.5,    0.4,    0.8,    1.2,    3.3,    3.0,    3.8,    0.2,    4.3,    3.8,    3.1,    3.3,    3.4,    3.4,    4.0,  999.0,  999.0,   26.0,   33.5,   23.0,   31.5,   16.4,   24.8,   24.3,   34.0,   23.1,   23.4,   20.0,   28.6,   29.0,    0.9,    0.6,   16.5,  999.0,  999.0,  999.0,   34.6,  -31.1,   41.4,   -8.0,  -36.3,   42.0,  -12.5,  -11.2,  -10.3,  -13.3,  -10.9,   -7.0,   -6.2,  -12.6,   -1.0,   -4.5,   -5.6,   -1.8,  999.0,  999.0,   13.4
2000/10/26 16:40,  999.0,    0.3,    0.6,    1.7,    2.9,    3.4,    2.4,    3.3,    3.3,    5.0,    4.0,    3.7,    3.7,    4.6,    3.2,    1.8,    1.6,   19.3,   15.5,   11.5,    8.4,    6.6,    2.7,    3.5,  999.0,    0.9,    0.5,    0.5,    0.6,    0.7,  999.0,    0.5,  999.0,  999.0,  999.0,  999.0,  999.0,  999.0,  -22.8,  999.0,  999.0,  -41.9,  999.0,  -34.0,  -25.0,  -28.5,  -18.9,  -24.3,  -22.1,  -26.6,  -18.1,   -3.4,  -15.2,  -20.6,   -7.3,   -0.4,   -1.1,   -7.7
2000/10/26 16:50,  999.0,    2.0,    4.8,  999.0,    6.8,    5.2,    1.9,    5.8,    6.4,    4.9,    3.8,    5.0,    4.7,    3.7,    3.5,  999.0,  999.0,   24.0,   23.0,   25.6,   28.2,   32.3,   37.0,   37.7,   32.1,   23.0,   28.1,   36.6,   21.6,   12.8,    4.9,    0.9,    8.9,    3.1,   22.6,    6.5,   12.6,   14.4,  999.0,   20.7,    0.3,    0.6,  999.0,   -0.3,    1.1,   10.9,    1.0,   11.1,    7.3,   22.6,   25.0,   32.4,   24.4,   30.9,   41.3,   42.2,   20.6,   27.7
2000/10/26 17:00,  -18.9,  -14.9,  999.0,  999.0,  999.0,  999.0,    2.8,    1.8,  999.0,    3.7,    2.9,    3.6,    5.0,    5.1,    4.7,    2.4,    6.8,   11.4,  999.0,  999.0,  999.0,  999.0,   19.7,   37.9,   15.9,   28.2,   27.4,   22.2,   17.8,   17.1,    7.3,   21.5,    2.8,    8.4,   12.9,    9.3,    7.2,   11.0,    5.8,    4.3,   13.2,   19.5,    1.1,   15.3,   10.9,   13.5,   16.0,   24.3,   29.8,   31.2,   23.6,   26.1,   36.5,   25.2,   21.6,   26.3,   26.2,   29.5
2000/10/26 17:10,  -11.6,   -6.1,   -3.4,    0.6,    1.3,    0.2,    1.0,    0.8,    2.6,    3.3,    2.1,    5.3,    5.1,    3.2,    1.1,    2.0,    3.1,  999.0,    7.3,   20.5,   12.9,   41.5,   31.9,   41.7,   34.3,   34.9,   41.5,   36.5,   41.7,   33.6,   28.5,   21.5,   21.2,   28.3,   28.3,   33.1,   41.6,   37.4,    8.4,   41.6,   31.3,    7.2,   31.4,   39.2,   42.0,   41.8,   41.9,   42.1,   41.8,   41.9,   41.7,   41.8,   41.9,   42.0,   41.5,   41.7,   42.1,   41.7
2000/10/26 17:20,  -11.5,   -6.1,   -1.7,   -0.6,    1.3,    2.6,    3.0,    2.4,   -0.1,    2.6,    2.8,    2.9,  999.0,  999.0,  999.0,  999.0,  999.0,  999.0,   26.8,   28.2,   30.1,   31.4,   36.1,   40.4,   40.3,   40.2,   41.2,   42.2,   42.1,   42.0,   41.8,   42.1,   41.8,   41.9,   42.1,   41.8,   42.1,   41.8,   41.6,   41.7,   42.0,   42.0,   41.9,   41.7,   41.7,   41.6,   42.2,   42.2,   42.0,   41.9,   42.1,   42.1,   41.9,   42.1,   42.1,   42.0,   42.5,   42.0
2000/10/26 17:30,  -10.2,   -5.4,    0.1,    0.8,    1.1,    0.9,    0.8,   -0.2,    0.1,    2.0,    2.2,    2.3,  999.0,  999.0,  999.0,  999.0,  999.0,  999.0,  999.0,  999.0,  999.0,  999.0,   37.4,   39.8,   42.3,   41.7,   41.4,   41.9,   41.7,   41.9,   41.8,   42.1,   41.8,   42.1,   41.9,   41.9,   41.8,   41.6,   41.8,   41.9,   42.2,   41.7,   41.6,   41.5,   42.0,   41.7,   41.6,   41.9,   41.8,   41.6,   41.8,   41.9,   41.8,   42.2,   42.0,   41.2,   21.9,   28.3
2000/10/26 17:40,  -11.7,  999.0,   -1.0,   -0.0,   -0.2,   -0.8,   -0.5,    0.5,    1.2,    2.8,    3.7,    5.0,  999.0,  999.0,  999.0,  999.0,   24.5,  999.0,  999.0,   30.5,   37.7,  999.0,   38.6,   41.6,   42.0,  999.0,   27.6,   27.7,   42.0,   34.1,   41.7,   25.9,   42.0,   42.1,   34.6,   42.1,   31.7,   38.2,   41.7,   41.8,   42.0,   41.4,   41.8,   41.9,   25.6,   35.1,   36.2,   41.7,   38.2,   24.2,   42.6,   42.5,   35.0,   41.8,   42.2,   31.5,   20.8,  999.0
2000/10/26 17:50,  999.0,    4.8,    1.4,    0.8,    2.3,    2.3,    0.5,    0.4,    1.2,    1.4,    2.8,    3.5,    4.7,    3.2,    4.2,    2.7,    2.2,    2.6,    3.1,    2.6,    2.5,    3.2,   20.2,    3.6,    4.1,    5.5,    7.5,    8.1,    9.4,  999.0,  999.0,  999.0,  999.0,  999.0,  999.0,  999.0,  999.0,  999.0,  999.0,  999.0,  999.0,  999.0,  999.0,  999.0,   41.7,  999.0,   -0.3,   20.5,   -0.7,  999.0,  999.0,  999.0,  999.0,  999.0,  999.0,  999.0,  999.0,  999.0
2000/10/26 18:00,  999.0,    6.5,    6.5,    8.6,    5.4,    3.7,    3.0,    2.0,    1.3,    1.1,    1.8,    2.5,    3.0,    3.3,    3.7,    4.5,    4.6,    3.9,    3.2,    3.2,    3.6,    3.6,    4.5,    4.7,    4.3,    5.1,    6.2,    6.5,    7.1,    8.3,    9.5,   10.2,   14.2,   17.2,   19.8,  999.0,  999.0,  999.0,  999.0,  999.0,  999.0,  999.0,  999.0,  999.0,  999.0,  999.0,  999.0,  999.0,  999.0,  999.0,   16.4,  999.0,  999.0,  999.0,  999.0,  999.0,  999.0,  999.0
2000/10/26 18:10,    8.2,    7.0,    6.1,    7.9,    3.8,    2.7,    2.4,    2.5,    2.1,    2.2,    2.9,    3.3,    3.3,    3.3,    3.6,    4.0,    3.7,    3.7,    4.1,    4.8,    5.2,    5.4,    5.7,    6.3,    6.5,    6.6,    6.2,    5.6,    5.7,    5.5,    5.5,    5.5,    6.8,    8.3,    9.1,   11.1,   11.2,  999.0,   13.3,  999.0,  999.0,  999.0,   14.8,   17.6,   19.7,   19.4,   20.4,   21.0,   11.2,   22.6,   22.8,  999.0,   16.2,  999.0,  999.0,  999.0,  999.0,  999.0
2000/10/26 18:20,    7.0,    5.5,    3.9,    3.5,    2.2,    2.0,    2.2,    1.4,    3.1,    2.4,    2.6,    1.8,    1.7,    2.9,    4.3,    4.1,    3.5,    4.9,    5.2,    4.7,    6.1,    6.6,    4.3,    7.5,    8.2,    4.9,    4.2,    5.5,    5.8,    8.4,    6.8,    5.3,    7.3,    7.8,   11.1,    8.7,  999.0,  999.0,   16.9,  999.0,  999.0,  999.0,  999.0,  999.0,  999.0,  999.0,  999.0,  999.0,  999.0,  999.0,  999.0,  999.0,  999.0,  999.0,  999.0,   18.5,  999.0,  999.0
2000/10/26 18:30,   20.6,   19.8,   19.2,   19.4,   13.1,   17.0,  999.0,  999.0,    4.5,  999.0,    0.6,  999.0,  999.0,  999.0,  999.0,  999.0,  999.0,  999.0,  999.0,  999.0,  999.0,  999.0,  999.0,  999.0,  999.0,  999.0,  999.0,  999.0,  999.0,  999.0,  999.0,  999.0,  999.0,  999.0,  999.0,  999.0,  999.0,  999.0,  999.0,  999.0,  999.0,  999.0,  999.0,  999.0,   -0.7,   -0.6,  999.0,  999.0,  999.0,   -0.6,  999.0,  999.0,  999.0,  999.0,  999.0,  999.0,  999.0,  999.0
2000/10/26 18:40,   24.4,  999.0,   28.1,   22.6,   19.5,   16.2,   15.8,  999.0,   20.0,  999.0,   -1.2,  999.0,  999.0,  999.0,  999.0,  999.0,  999.0,  999.0,  999.0,  999.0,  999.0,  999.0,  999.0,  999.0,  999.0,  999.0,  999.0,  999.0,  999.0,  999.0,  999.0,  999.0,  999.0,  999.0,  999.0,  999.0,  999.0,  999.0,  999.0,  999.0,  999.0,  999.0,  999.0,  999.0,   -0.2,  999.0,   -0.2,   -1.0,   -0.8,   -0.3,   -0.5,  999.0,  999.0,  999.0,  999.0,  999.0,  999.0,  999.0
2000/10/26 18:50,  999.0,   11.2,    5.8,   11.3,  999.0,  999.0,   -2.3,  -10.1,   -2.9,   -2.2,    0.0,   -1.2,   17.0,  999.0,  999.0,  999.0,  999.0,  999.0,  999.0,  999.0,  999.0,  999.0,  999.0,  999.0,  999.0,  999.0,  999.0,  999.0,  999.0,  999.0,  999.0,  999.0,  999.0,  999.0,  999.0,  999.0,  999.0,  999.0,  999.0,  999.0,  999.0,  999.0,  999.0,  999.0,  999.0,  999.0,  999.0,  999.0,  999.0,  999.0,  999.0,  999.0,  999.0,  999.0,  999.0,  999.0,  999.0,  999.0
2000/10/26 19:00,   17.3,  999.0,    5.4,    5.2,    8.8,   -2.5,   -1.4,   -0.4,   -2.4,   -0.1,   -4.8,  999.0,  999.0,  999.0,  999.0,  999.0,  999.0,  999.0,  999.0,  999.0,  999.0,  999.0,  999.0,  999.0,  999.0,  999.0,  999.0,  999.0,  999.0,  999.0,  999.0,  999.0,  999.0,  999.0,  999.0,  999.0,  999.0,  999.0,  999.0,  999.0,   -6.9,  999.0,  999.0,   -5.2,  999.0,   -3.4,  999.0,  999.0,   -1.0,  999.0,   -1.5,   -0.8,  999.0,  999.0,  999.0,  999.0,  999.0,  999.0
2000/10/26 19:10,    7.9,   -0.4,    0.7,    5.8,    8.9,   -6.0,   -1.3,    5.3,    3.4,    3.6,    0.5,    1.6,    0.0,   -0.9,   -0.3,    1.1,    0.9,    0.0,    1.6,    1.3,    1.6,    2.3,    3.0,    2.4,    4.1,  999.0,    9.2,  999.0,  999.0,   11.8,  999.0,  999.0,  999.0,  999.0,  999.0,  999.0,  999.0,  999.0,  999.0,  999.0,  999.0,  999.0,  999.0,  999.0,  999.0,  999.0,  999.0,  999.0,  999.0,  999.0,  999.0,  999.0,  999.0,  999.0,  999.0,  999.0,  999.0,  999.0
2000/10/26 19:20,   18.3,   15.2,   12.2,   11.9,    7.9,   13.8,    4.0,    1.9,    1.2,    1.7,    1.7,    1.9,    1.9,    0.8,    0.3,    1.2,    1.6,    1.4,    2.0,    2.7,    2.4,    1.4,    2.1,    1.2,    4.8,    3.0,    4.0,    4.6,    6.8,    8.0,  999.0,  999.0,  999.0,  999.0,  999.0,  999.0,  999.0,  999.0,  999.0,  999.0,  999.0,   -1.0,    0.1,   -0.7,   -0.4,   15.7,  999.0,   -1.1,  999.0,  999.0,   -0.4,  999.0,   -1.3,  999.0,   -1.1,   -1.0,  999.0,  999.0
2000/10/26 19:30,   15.9,    6.6,   11.8,    7.0,    9.0,    8.7,    3.7,    5.0,    4.1,    2.1,    0.7,    3.2,    1.4,    1.1,    1.4,    1.6,    1.3,    1.6,    1.8,    1.6,    1.7,    1.8,    2.1,    2.2,    3.0,    3.5,    3.5,    3.8,    3.2,    5.0,    4.6,    8.1,  999.0,  999.0,  999.0,  999.0,  999.0,  999.0,  999.0,  999.0,  999.0,   -1.0,   -1.1,   -1.1,   -0.8,   -0.7,   -0.6,  999.0,    1.2,  999.0,  999.0,    2.1,    7.2,   -1.1,  999.0,   -0.6,   -1.1,  999.0
2000/10/26 19:40,  999.0,  999.0,  999.0,    6.6,    4.9,    3.2,    2.8,    3.2,    2.5,    0.4,    1.1,   -0.4,   -0.3,   -0.3,   -0.6,   -0.7,   -0.7,   -0.5,   -0.3,   -0.2,   -0.1,    0.2,   -0.2,    0.2,    0.2,    1.2,    1.6,    2.2,    4.9,    2.5,    4.3,  999.0,  999.0,  999.0,  999.0,  999.0,  999.0,  999.0,  999.0,  999.0,   -0.5,   -0.5,    0.5,    5.2,    6.6,    1.7,    4.0,    5.9,    7.8,   12.9,   -0.6,  999.0,   -1.4,   -0.4,   -1.0,   -0.6,  999.0,    0.2
2000/10/26 19:50,  999.0,    6.8,    6.9,    7.8,    3.6,    1.6,    1.4,    4.4,    4.1,    0.1,   -0.9,   -1.3,   -1.3,   -1.5,   -1.1,    0.2,    1.9,    1.6,    2.2,    3.7,    3.3,    7.1,    7.5,    6.7,    7.1,    5.5,    5.8,    5.4,    7.1,    6.4,    5.9,    7.4,    6.3,    5.5,    7.3,    7.3,    7.6,    8.0,    9.1,    9.3,    9.6,    9.8,    7.7,    9.7,   10.5,    6.3,    5.5,    4.7,   10.9,    9.9,   11.0,   11.4,   14.7,   18.1,   12.2,   19.9,   19.7,  999.0
2000/10/26 20:00,  999.0,    6.9,    5.5,    4.0,    2.3,    0.9,    0.6,    0.2,   -0.6,   -2.0,   -2.1,   -2.1,   -2.1,   -2.1,   -2.4,   -2.7,   -2.9,   -2.0,   -1.2,   -1.4,   -1.0,   -0.8,   -0.5,    0.1,    0.8,    0.5,   -0.2,   -0.4,   -1.6,   -1.9,   -2.4,   -2.4,   -2.9,   -3.2,   -3.7,   -4.7,   -6.1,   -6.1,   -6.4,   -9.4,   -8.7,   -6.7,   -5.9,   -4.6,   -0.1,    2.8,    4.3,    1.8,    2.1,    1.8,    1.2,    0.8,    0.4,    1.7,    0.8,    1.7,    1.7,    1.1
2000/10/26 20:10,  999.0,    4.6,    3.8,    2.6,    1.6,    0.7,    0.6,    0.5,   -0.2,   -0.5,   -0.9,   -0.4,   -0.6,   -0.9,   -1.3,   -1.4,   -1.5,   -1.0,   -0.9,   -1.0,   -0.8,   -0.3,    0.3,    0.5,    0.8,    1.2,    0.5,   -0.1,   -0.8,   -0.8,   -1.4,   -3.0,   -1.4,   -4.4,   -4.7,   -5.3,   -5.4,   -5.6,   -7.1,  999.0,  999.0,  999.0,  -10.6,  999.0,  999.0,  999.0,   -3.7,   -0.3,    2.3,    3.3,    4.6,    4.6,  999.0,  999.0,    6.0,    4.7,    3.6,    2.5
2000/10/26 20:20,  999.0,  999.0,  999.0,   -1.4,   -1.8,   -2.1,   -0.5,   -3.6,   -0.2,    0.8,   -1.9,   -1.6,   -0.1,    3.7,    4.3,    0.4,    0.8,    1.6,    0.1,    0.2,    1.0,  999.0,  999.0,  999.0,  999.0,  999.0,  999.0,  999.0,  999.0,  999.0,  999.0,  999.0,  999.0,  999.0,  999.0,  999.0,  999.0,  999.0,  999.0,  999.0,  999.0,  999.0,  999.0,  999.0,  999.0,  999.0,  999.0,  999.0,  999.0,  999.0,  999.0,  -21.8,  999.0,  999.0,  999.0,  999.0,  999.0,  999.0
2000/10/26 20:30,  999.0,  999.0,    4.6,    8.9,    2.1,    0.1,   -1.2,   -0.5,   -1.3,   -1.2,    7.6,    3.2,    3.4,  999.0,    4.0,    4.4,    1.6,    6.6,    3.4,    2.7,   -1.2,    2.5,    3.0,   -3.7,  999.0,  999.0,  999.0,  999.0,  999.0,  999.0,  999.0,  999.0,  999.0,  999.0,  999.0,  999.0,  999.0,  999.0,  999.0,  999.0,  999.0,  999.0,  999.0,  999.0,  999.0,  999.0,  999.0,  999.0,  999.0,  999.0,  999.0,  -20.5,  999.0,  999.0,  999.0,  999.0,  999.0,  999.0
2000/10/26 20:40,  999.0,   -1.2,   -0.4,   -0.7,   -0.1,    2.5,   -1.1,   -1.5,  999.0,  999.0,   -1.2,  999.0,  999.0,    2.8,    9.5,  999.0,  999.0,   -1.5,  999.0,    2.7,   -1.0,  999.0,   -1.9,   -3.7,  999.0,  999.0,  999.0,  999.0,  999.0,  999.0,  999.0,  999.0,  999.0,  999.0,  999.0,  999.0,  999.0,  999.0,  999.0,  999.0,  999.0,  999.0,  999.0,  999.0,  999.0,  999.0,  999.0,  999.0,  999.0,  999.0,  999.0,  999.0,  999.0,  999.0,  999.0,  999.0,  999.0,  999.0
2000/10/26 20:50,  999.0,  999.0,    0.4,    1.0,  999.0,   -4.7,   -2.6,   -4.9,   -4.4,   -2.3,    0.4,   -0.6,  -12.1,   -7.1,   -6.6,   -5.6,  -12.8,  -10.6,    1.4,   -5.4,    0.8,    0.9,   -8.3,  -20.3,  -17.0,  -10.0,   -5.7,   -2.3,    2.3,  -14.9,   11.0,  999.0,  999.0,  999.0,  -40.3,  999.0,  999.0,  999.0,  999.0,  999.0,  -41.5,  999.0,  999.0,  999.0,  999.0,  999.0,  999.0,  999.0,  999.0,  999.0,  999.0,  999.0,  999.0,  999.0,  999.0,  999.0,  999.0,  999.0
2000/10/26 21:00,  999.0,  999.0,   -0.2,  999.0,  999.0,    7.4,   14.5,    5.1,    8.5,   12.3,   12.2,    5.6,    6.3,    4.8,    2.5,    2.7,    2.2,    2.3,    2.7,    2.1,    1.9,    1.6,    2.6,    5.2,    2.2,    4.7,    7.6,    9.3,  999.0,    4.1,   12.6,   -1.0,   -0.6,  999.0,  999.0,  999.0,  999.0,  999.0,  999.0,  999.0,  999.0,  999.0,  999.0,  999.0,   16.1,   16.1,    2.9,   16.1,   16.3,    0.6,    8.1,   18.5,    9.6,  999.0,  999.0,  999.0,  999.0,  999.0
2000/10/26 21:10,  999.0,  999.0,    7.2,    1.7,   -0.3,   -1.5,    0.2,   -0.2,   -1.3,   -1.1,   -0.5,   -0.0,  -10.6,    3.2,    1.9,    2.8,   -6.0,   -9.0,  -15.7,   -2.8,    4.0,  999.0,    8.9,   23.6,  999.0,   -3.1,   18.8,   41.9,   42.5,  999.0,  999.0,   20.6,  999.0,   -1.1,   -1.2,  999.0,  999.0,  999.0,    1.0,    0.8,    0.7,   21.4,  999.0,  999.0,   41.7,  999.0,   18.3,   17.5,    8.7,    8.9,   19.1,   30.6,    9.5,   42.0,   42.0,   41.5,  999.0,   41.6
2000/10/26 21:20,   18.4,   16.8,   17.7,   10.6,    6.1,    6.5,  999.0,  999.0,   -0.0,   -1.9,  999.0,  999.0,   -1.2,   -5.3,    1.9,   12.8,    8.1,   17.3,    3.1,  999.0,  999.0,   11.7,   13.3,  999.0,   20.7,   29.9,  999.0,  999.0,   27.4,   29.9,  999.0,   23.9,   36.0,   32.7,  999.0,   42.4,  999.0,  999.0,   42.0,   41.1,   40.4,   34.0,   28.7,  999.0,  999.0,  999.0,   28.8,   32.1,   39.6,   38.6,   42.1,  999.0,  999.0,   41.8,   42.3,  999.0,  999.0,  999.0
2000/10/26 21:30,   14.4,    9.7,    8.6,   12.0,    1.7,    1.2,    0.8,   -2.8,  999.0,  999.0,    0.6,    0.8,    3.5,   11.5,   15.3,   19.1,   16.2,    1.6,    6.8,    1.7,    1.5,  999.0,  999.0,   12.8,  999.0,   17.7,  999.0,   21.6,   22.4,   41.6,  999.0,  999.0,   41.8,   42.5,  999.0,   41.6,  999.0,   41.8,   41.8,  999.0,   42.3,   41.5,   41.3,   41.7,   41.9,  999.0,   41.6,  999.0,  999.0,   41.8,   42.0,  999.0,  999.0,   42.3,  999.0,   41.8,  999.0,  999.0
2000/10/26 21:40,    7.7,    7.8,    7.4,   12.5,    6.0,    0.1,    1.0,    1.4,   -0.3,   -0.7,   -8.3,   -1.8,   -3.3,    5.6,   -2.4,   -2.4,   -7.7,    3.3,    0.7,   -4.6,   -0.2,   12.6,    3.5,    3.0,  999.0,  999.0,  999.0,   22.8,   25.5,  999.0,  999.0,  999.0,  999.0,   23.1,  999.0,   23.5,  999.0,   32.7,  999.0,   23.3,  999.0,   38.8,   36.4,  999.0,  999.0,  999.0,   23.5,  999.0,   21.1,   23.9,  999.0,   42.1,  999.0,  999.0,   42.3,  999.0,   42.5,   41.7
2000/10/26 21:50,   19.8,   17.0,   15.2,   11.7,    8.5,    7.8,    4.1,    3.3,    1.0,    2.3,    0.6,  999.0,    3.2,    4.6,    2.1,    2.1,   -1.6,    2.5,  999.0,   10.2,    8.6,  999.0,  999.0,  999.0,  999.0,  999.0,  999.0,  999.0,  999.0,  999.0,  999.0,  999.0,  999.0,  999.0,  999.0,  999.0,  999.0,  999.0,  999.0,  999.0,  999.0,  999.0,  999.0,  999.0,  999.0,  999.0,  999.0,  999.0,  999.0,  999.0,  999.0,  999.0,  999.0,  999.0,  999.0,  999.0,  999.0,  999.0
2000/10/26 22:00,   18.8,    9.5,   14.5,    5.6,    8.1,    4.6,    4.7,    2.2,    3.8,    2.8,    1.3,    1.8,    2.4,    0.3,    0.1,   -1.9,   -6.4,   -7.8,  999.0,   -1.3,    3.8,    5.2,    2.0,    1.6,  999.0,  999.0,  999.0,  999.0,  999.0,  999.0,  999.0,  999.0,  999.0,  999.0,  999.0,  999.0,  999.0,  999.0,  999.0,  999.0,  999.0,  999.0,  999.0,  999.0,  999.0,  999.0,  999.0,  999.0,  999.0,  999.0,  999.0,  999.0,  999.0,  999.0,  999.0,  999.0,  999.0,  999.0
2000/10/26 22:10,   18.0,   18.2,   14.7,   13.0,   14.3,    8.7,   11.3,    2.1,    1.6,   -0.1,   -3.8,   -0.6,   -0.4,  999.0,    1.3,   -6.9,    2.7,    5.6,  999.0,  999.0,  999.0,  999.0,  999.0,  999.0,  999.0,   22.5,  999.0,  999.0,  999.0,   21.6,   22.8,   20.5,   22.3,   21.2,  999.0,  999.0,   21.8,   22.2,  999.0,  999.0,   22.9,   22.6,   23.4,  999.0,   22.8,  999.0,  999.0,  999.0,  999.0,  999.0,  999.0,  999.0,  999.0,  999.0,  999.0,  999.0,  999.0,  999.0
2000/10/26 22:20,   15.1,   16.0,   13.8,    7.4,    3.0,    1.9,    0.5,    0.0,   -2.2,   -1.3,   -1.6,   -0.8,    0.4,   -2.6,   -3.5,   -2.5,  999.0,  999.0,   10.5,    4.8,    5.1,  999.0,  999.0,  999.0,  999.0,   42.1,  999.0,  999.0,  999.0,  999.0,  999.0,  999.0,   22.8,  999.0,  999.0,   22.8,  999.0,  999.0,   42.7,  999.0,  999.0,   42.4,   32.7,  999.0,   41.7,   22.8,  999.0,  999.0,   41.9,  999.0,   41.7,   41.6,  999.0,   42.3,  999.0,  999.0,  999.0,   41.9
2000/10/26 22:30,   19.2,  999.0,  999.0,   11.3,    5.7,    5.4,    3.6,    2.6,   -0.2,   -0.4,   -0.9,    4.8,    4.8,    6.6,    1.1,    2.5,    6.8,    1.3,   11.4,   15.6,   21.0,  999.0,  999.0,  999.0,  999.0,  999.0,  999.0,  999.0,  999.0,  999.0,  999.0,  999.0,  999.0,  999.0,  999.0,  999.0,  999.0,  999.0,  999.0,  999.0,  999.0,   41.3,   41.8,   41.6,  999.0,   42.6,   42.3,   42.0,  999.0,   42.2,   41.7,  999.0,  999.0,   41.5,  999.0,   41.9,  999.0,   41.6
2000/10/26 22:40,   19.9,   14.8,   12.2,    6.2,    5.8,    3.3,   -0.2,    0.8,   -2.3,   -2.6,    4.1,  999.0,    4.7,  999.0,    6.8,  999.0,  999.0,  999.0,  999.0,  999.0,   15.1,  999.0,   22.9,  999.0,  999.0,   29.2,  999.0,  999.0,   32.7,   33.3,   35.2,   35.2,   35.8,  999.0,   38.6,   40.6,   40.4,   40.9,   41.5,   41.3,   41.8,   41.9,  999.0,   41.0,   42.0,  999.0,  999.0,  999.0,   42.1,   41.7,   41.6,   42.2,   41.8,   41.1,   41.9,   42.3,   41.8,   41.4
2000/10/26 22:50,   19.3,  999.0,   18.6,   14.4,   10.3,   11.2,    8.8,    1.1,    0.3,    3.4,    4.8,  999.0,    1.6,    5.1,    2.8,    6.0,    5.6,  999.0,  999.0,   10.1,  999.0,  999.0,   30.7,  999.0,  999.0,  999.0,   34.3,  999.0,   34.4,   38.6,   40.1,   41.8,   40.7,   42.2,   41.1,   41.6,  999.0,   42.2,  999.0,   41.9,  999.0,   42.1,   42.1,   41.8,   41.8,   41.7,  999.0,   42.1,   42.5,   42.0,   41.8,   42.3,   42.0,   39.0,   42.2,   41.0,  999.0,   41.5
2000/10/26 23:00,   10.0,   13.9,    4.3,    0.6,   -1.0,    6.0,   -2.7,    0.7,   -2.0,    3.6,    3.9,    3.1,    7.3,   14.2,    2.4,  999.0,   12.3,  999.0,   12.1,   12.9,   15.3,   15.1,   16.4,  999.0,   25.2,  999.0,   35.4,   36.4,   36.0,  999.0,   40.7,   40.4,   41.6,   41.3,   41.8,   41.9,   41.5,   42.1,   42.4,   42.0,   42.2,   42.5,   41.7,  999.0,   41.6,   42.4,   42.4,   41.8,   41.9,   41.6,   42.0,   41.9,   42.6,   42.3,   42.1,  999.0,   41.7,   41.4
2000/10/26 23:10,   19.3,   15.3,   10.5,    6.6,    6.5,    3.2,    1.3,   -0.4,   -3.9,    1.6,   -4.2,   -8.9,    2.9,    1.0,    5.1,    0.6,   13.5,   13.7,    5.2,    3.9,  999.0,   14.5,  999.0,  999.0,  999.0,  999.0,  999.0,  999.0,   33.3,   36.9,   38.8,   37.9,   40.6,  999.0,  999.0,   41.0,   41.6,  999.0,  999.0,   41.9,  999.0,   41.5,  999.0,   41.8,   41.4,   41.7,  999.0,   42.1,   41.2,   42.2,  999.0,  999.0,  999.0,  999.0,  999.0,   41.4,  999.0,   40.6
2000/10/26 23:20,   11.8,    9.4,    4.5,    1.0,    0.5,    1.8,    2.6,    2.2,    0.5,    0.7,    5.0,  999.0,    1.3,    0.4,    0.7,   -0.9,  999.0,    8.2,   10.5,   17.5,   19.8,  999.0,  999.0,   29.6,   31.3,  999.0,   30.9,   35.9,   37.2,   39.4,   38.9,   41.0,   41.7,   42.0,   41.9,   42.2,   41.9,   41.2,   41.8,   41.7,   41.5,   42.0,   41.5,  999.0,   42.1,   42.4,   41.8,   41.8,   41.4,   41.6,   41.7,   41.7,   41.6,   41.6,   41.9,   42.6,   42.0,   41.4
2000/10/26 23:30,   15.5,   10.3,    9.6,    5.9,    2.1,    0.2,    5.1,    4.2,   -0.6,   -2.2,   -1.0,   -4.4,   -5.7,  999.0,    6.3,    7.2,    4.8,    9.9,   14.1,   15.8,  999.0,  999.0,  999.0,  999.0,  999.0,  999.0,  999.0,   36.1,   37.4,  999.0,   41.1,   37.5,   41.7,   41.6,   41.7,   41.9,   41.9,   42.4,   42.2,  999.0,   42.2,   41.7,   42.1,  999.0,  999.0,   41.6,   41.8,  999.0,  999.0,   41.1,  999.0,   41.7,   42.0,   41.3,   41.8,   41.7,  999.0,   41.3
2000/10/26 23:40,   10.6,    4.1,    0.7,    2.1,  999.0,    1.5,    2.2,    2.7,   -0.0,    1.5,    2.5,    9.3,  999.0,    5.1,    9.9,   10.8,  999.0,  999.0,  999.0,  999.0,  999.0,  999.0,  999.0,  999.0,   35.8,  999.0,   40.3,  999.0,  999.0,   42.1,  999.0,   42.5,  999.0,   41.9,   42.1,   42.6,   41.4,   41.2,   41.5,   41.6,  999.0,   42.2,   42.3,   41.8,   41.6,  999.0,  999.0,  999.0,   41.5,  999.0,   43.2,  999.0,   42.1,   42.2,   42.4,   41.5,   41.4,  999.0
2000/10/26 23:50,   12.5,  999.0,    1.4,    5.2,    6.1,    4.5,    4.7,    1.7,    3.5,    0.5,  999.0,  999.0,    0.4,  999.0,  999.0,    4.5,    7.3,    9.6,   11.9,    7.3,    5.3,   14.5,   13.0,  999.0,   27.5,   37.6,   41.9,   38.3,  999.0,   41.9,   41.5,   41.9,   41.6,   42.1,   41.2,   41.3,  999.0,   41.3,  999.0,   41.3,   41.0,   41.8,   41.6,   41.4,   41.7,  999.0,   41.6,   41.9,   41.5,  999.0,   42.2,   41.0,   41.4,   41.6,   42.0,  999.0,   41.9,   42.0
